Observation data for Odell on 01/10/2018      Previous  Date  Next       Current Mesonet Observations  Soil Data  Daily Summary Page  Observations in Plain Language
KOD1 100600Z 13012KT 11/02 A2983 RMK A01 T01050021  RH  056%=      5-min Rain = 0
KOD1 100601Z 13010KT 10/02 A2983 RMK A01 T01040020  RH  056%=      5-min Rain = 0
KOD1 100602Z 14011KT 10/02 A2983 RMK A01 T01040021  RH  056%=      5-min Rain = 0
KOD1 100603Z 14011KT 10/02 A2983 RMK A01 T01040021  RH  056%=      5-min Rain = 0
KOD1 100604Z 14010KT 10/02 A2983 RMK A01 T01040020  RH  056%=      5-min Rain = 0
KOD1 100605Z 14010KT 10/02 A2983 RMK A01 T01030020  RH  056%=      5-min Rain = 0
KOD1 100606Z 14012KT 10/02 A2983 RMK A01 T01030021  RH  057%=      5-min Rain = 0
KOD1 100607Z 14011KT 10/02 A2983 RMK A01 T01030021  RH  057%=      5-min Rain = 0
KOD1 100608Z 14011KT 10/02 A2983 RMK A01 T01030021  RH  057%=      5-min Rain = 0
KOD1 100609Z 13012KT 10/02 A2982 RMK A01 T01030021  RH  057%=      5-min Rain = 0
KOD1 100610Z 14011KT 10/02 A2982 RMK A01 T01030021  RH  057%=      5-min Rain = 0
KOD1 100611Z 14011KT 10/02 A2982 RMK A01 T01030021  RH  057%=      5-min Rain = 0
KOD1 100612Z 14012KT 10/02 A2982 RMK A01 T01030021  RH  057%=      5-min Rain = 0
KOD1 100613Z 14012KT 10/02 A2982 RMK A01 T01040021  RH  057%=      5-min Rain = 0
KOD1 100614Z 14012KT 10/02 A2982 RMK A01 T01040021  RH  056%=      5-min Rain = 0
KOD1 100615Z 14012KT 10/02 A2982 RMK A01 T01040021  RH  057%=      5-min Rain = 0
KOD1 100616Z 14012KT 10/02 A2982 RMK A01 T01040021  RH  057%=      5-min Rain = 0
KOD1 100617Z 14012KT 10/02 A2982 RMK A01 T01030021  RH  057%=      5-min Rain = 0
KOD1 100618Z 14011KT 10/02 A2982 RMK A01 T01040022  RH  057%=      5-min Rain = 0
KOD1 100619Z 14011KT 10/02 A2982 RMK A01 T01040022  RH  057%=      5-min Rain = 0
KOD1 100620Z 14012KT 10/02 A2982 RMK A01 T01040022  RH  057%=      5-min Rain = 0
KOD1 100621Z 14013KT 11/02 A2982 RMK A01 T01060023  RH  057%=      5-min Rain = 0
KOD1 100622Z 14013KT 11/02 A2982 RMK A01 T01070024  RH  056%=      5-min Rain = 0
KOD1 100623Z 14012KT 11/02 A2982 RMK A01 T01090023  RH  055%=      5-min Rain = 0
KOD1 100624Z 15012KT 11/02 A2982 RMK A01 T01100023  RH  055%=      5-min Rain = 0
KOD1 100625Z 14012KT 11/02 A2982 RMK A01 T01110023  RH  055%=      5-min Rain = 0
KOD1 100626Z 14012KT 11/02 A2982 RMK A01 T01110023  RH  055%=      5-min Rain = 0
KOD1 100627Z 14013KT 11/02 A2982 RMK A01 T01110023  RH  055%=      5-min Rain = 0
KOD1 100628Z 14013KT 11/02 A2982 RMK A01 T01110023  RH  055%=      5-min Rain = 0
KOD1 100629Z 14012KT 11/02 A2982 RMK A01 T01110023  RH  055%=      5-min Rain = 0
KOD1 100630Z 14011KT 11/02 A2982 RMK A01 T01110023  RH  055%=      5-min Rain = 0
KOD1 100631Z 14011KT 11/02 A2982 RMK A01 T01100023  RH  055%=      5-min Rain = 0
KOD1 100632Z 14012KT 11/02 A2982 RMK A01 T01110023  RH  055%=      5-min Rain = 0
KOD1 100633Z 14011KT 11/02 A2982 RMK A01 T01100023  RH  055%=      5-min Rain = 0
KOD1 100634Z 14011KT 11/02 A2982 RMK A01 T01100023  RH  055%=      5-min Rain = 0
KOD1 100635Z 14012KT 11/02 A2982 RMK A01 T01100024  RH  055%=      5-min Rain = 0
KOD1 100636Z 14011KT 11/02 A2982 RMK A01 T01100023  RH  055%=      5-min Rain = 0
KOD1 100637Z 14011KT 11/02 A2982 RMK A01 T01100023  RH  055%=      5-min Rain = 0
KOD1 100638Z 14011KT 11/02 A2982 RMK A01 T01090023  RH  055%=      5-min Rain = 0
KOD1 100639Z 14012KT 11/02 A2982 RMK A01 T01090023  RH  055%=      5-min Rain = 0
KOD1 100640Z 14010KT 11/02 A2982 RMK A01 T01080023  RH  056%=      5-min Rain = 0
KOD1 100641Z 14011KT 11/02 A2982 RMK A01 T01080023  RH  056%=      5-min Rain = 0
KOD1 100642Z 14009KT 11/02 A2982 RMK A01 T01070023  RH  056%=      5-min Rain = 0
KOD1 100643Z 14012KT 11/02 A2982 RMK A01 T01070024  RH  056%=      5-min Rain = 0
KOD1 100644Z 14012KT 11/02 A2981 RMK A01 T01080024  RH  056%=      5-min Rain = 0
KOD1 100645Z 14011KT 11/02 A2981 RMK A01 T01070024  RH  056%=      5-min Rain = 0
KOD1 100646Z 15012KT 11/02 A2981 RMK A01 T01070024  RH  056%=      5-min Rain = 0
KOD1 100647Z 14011KT 11/02 A2981 RMK A01 T01070023  RH  056%=      5-min Rain = 0
KOD1 100648Z 14012KT 11/02 A2981 RMK A01 T01070024  RH  056%=      5-min Rain = 0
KOD1 100649Z 14011KT 11/02 A2981 RMK A01 T01070024  RH  056%=      5-min Rain = 0
KOD1 100650Z 15011KT 11/02 A2981 RMK A01 T01070024  RH  056%=      5-min Rain = 0
KOD1 100651Z 14011KT 11/02 A2982 RMK A01 T01080024  RH  056%=      5-min Rain = 0
KOD1 100652Z 14010KT 11/02 A2982 RMK A01 T01070023  RH  056%=      5-min Rain = 0
KOD1 100653Z 14011KT 11/02 A2982 RMK A01 T01060023  RH  056%=      5-min Rain = 0
KOD1 100654Z 14012KT 11/02 A2982 RMK A01 T01060024  RH  057%=      5-min Rain = 0
KOD1 100655Z 14010KT 11/02 A2982 RMK A01 T01060023  RH  057%=      5-min Rain = 0
KOD1 100656Z 14010KT 11/02 A2982 RMK A01 T01050023  RH  057%=      5-min Rain = 0
KOD1 100657Z 14012KT 10/02 A2981 RMK A01 T01040023  RH  057%=      5-min Rain = 0
KOD1 100658Z 15012KT 10/02 A2981 RMK A01 T01040024  RH  057%=      5-min Rain = 0
KOD1 100659Z 14011KT 10/02 A2981 RMK A01 T01040023  RH  057%=      5-min Rain = 0
KOD1 100700Z 14011KT 10/02 A2981 RMK A01 T01030023  RH  057%=      5-min Rain = 0
KOD1 100701Z 14011KT 10/02 A2981 RMK A01 T01030023  RH  058%=      5-min Rain = 0
KOD1 100702Z 14011KT 10/02 A2981 RMK A01 T01030023  RH  058%=      5-min Rain = 0
KOD1 100703Z 14011KT 10/02 A2981 RMK A01 T01030023  RH  058%=      5-min Rain = 0
KOD1 100704Z 14012KT 10/02 A2981 RMK A01 T01020023  RH  058%=      5-min Rain = 0
KOD1 100705Z 14010KT 10/02 A2981 RMK A01 T01020023  RH  058%=      5-min Rain = 0
KOD1 100706Z 14011KT 10/02 A2981 RMK A01 T01010023  RH  058%=      5-min Rain = 0
KOD1 100707Z 14010KT 10/02 A2981 RMK A01 T01010023  RH  058%=      5-min Rain = 0
KOD1 100708Z 14010KT 10/02 A2981 RMK A01 T01010023  RH  058%=      5-min Rain = 0
KOD1 100709Z 14009KT 10/02 A2981 RMK A01 T01000023  RH  058%=      5-min Rain = 0
KOD1 100710Z 14010KT 10/02 A2981 RMK A01 T01000023  RH  059%=      5-min Rain = 0
KOD1 100711Z 14011KT 10/02 A2981 RMK A01 T01000023  RH  059%=      5-min Rain = 0
KOD1 100712Z 14011KT 10/02 A2981 RMK A01 T01000023  RH  059%=      5-min Rain = 0
KOD1 100713Z 14010KT 10/02 A2981 RMK A01 T01000023  RH  059%=      5-min Rain = 0
KOD1 100714Z 14009KT 10/02 A2982 RMK A01 T00990023  RH  059%=      5-min Rain = 0
KOD1 100715Z 13009KT 10/02 A2982 RMK A01 T00980023  RH  059%=      5-min Rain = 0
KOD1 100716Z 14009KT 10/02 A2982 RMK A01 T00970023  RH  060%=      5-min Rain = 0
KOD1 100717Z 14009KT 10/02 A2982 RMK A01 T00970023  RH  060%=      5-min Rain = 0
KOD1 100718Z 14008KT 10/02 A2982 RMK A01 T00970023  RH  060%=      5-min Rain = 0
KOD1 100719Z 13009KT 10/02 A2982 RMK A01 T00970023  RH  060%=      5-min Rain = 0
KOD1 100720Z 13008KT 10/02 A2981 RMK A01 T00970023  RH  060%=      5-min Rain = 0
KOD1 100721Z 14009KT 10/02 A2981 RMK A01 T00960023  RH  060%=      5-min Rain = 0
KOD1 100722Z 14009KT 10/02 A2981 RMK A01 T00970023  RH  060%=      5-min Rain = 0
KOD1 100723Z 14010KT 10/02 A2981 RMK A01 T00960023  RH  060%=      5-min Rain = 0
KOD1 100724Z 14009KT 10/02 A2981 RMK A01 T00960023  RH  060%=      5-min Rain = 0
KOD1 100725Z 13009KT 10/02 A2981 RMK A01 T00950023  RH  060%=      5-min Rain = 0
KOD1 100726Z 14009KT 10/02 A2981 RMK A01 T00950023  RH  061%=      5-min Rain = 0
KOD1 100727Z 13009KT 09/02 A2981 RMK A01 T00940022  RH  061%=      5-min Rain = 0
KOD1 100728Z 13010KT 09/02 A2981 RMK A01 T00940023  RH  061%=      5-min Rain = 0
KOD1 100729Z 13011KT 09/02 A2981 RMK A01 T00930023  RH  061%=      5-min Rain = 0
KOD1 100730Z 13011KT 09/02 A2981 RMK A01 T00930023  RH  061%=      5-min Rain = 0
KOD1 100731Z 13012KT 09/02 A2981 RMK A01 T00930023  RH  061%=      5-min Rain = 0
KOD1 100732Z 14012KT 09/02 A2981 RMK A01 T00940023  RH  061%=      5-min Rain = 0
KOD1 100733Z 14012KT 09/02 A2981 RMK A01 T00940023  RH  061%=      5-min Rain = 0
KOD1 100734Z 14012KT 09/02 A2981 RMK A01 T00940023  RH  061%=      5-min Rain = 0
KOD1 100735Z 14012KT 09/02 A2981 RMK A01 T00940023  RH  061%=      5-min Rain = 0
KOD1 100736Z 14011KT 10/02 A2981 RMK A01 T00950024  RH  061%=      5-min Rain = 0
KOD1 100737Z 14012KT 10/02 A2981 RMK A01 T00950024  RH  061%=      5-min Rain = 0
KOD1 100738Z 14012KT 10/02 A2981 RMK A01 T00950024  RH  061%=      5-min Rain = 0
KOD1 100739Z 14011KT 10/02 A2981 RMK A01 T00950023  RH  061%=      5-min Rain = 0
KOD1 100740Z 14011KT 10/02 A2981 RMK A01 T00950024  RH  061%=      5-min Rain = 0
KOD1 100741Z 14011KT 10/02 A2981 RMK A01 T00950024  RH  061%=      5-min Rain = 0
KOD1 100742Z 14012KT 10/02 A2981 RMK A01 T00950023  RH  061%=      5-min Rain = 0
KOD1 100743Z 14013KT 09/02 A2981 RMK A01 T00940024  RH  061%=      5-min Rain = 0
KOD1 100744Z 13012KT 09/02 A2981 RMK A01 T00940023  RH  061%=      5-min Rain = 0
KOD1 100745Z 13012KT 09/02 A2981 RMK A01 T00940024  RH  061%=      5-min Rain = 0
KOD1 100746Z 14011KT 09/02 A2981 RMK A01 T00940023  RH  061%=      5-min Rain = 0
KOD1 100747Z 14012KT 09/02 A2981 RMK A01 T00930023  RH  062%=      5-min Rain = 0
KOD1 100748Z 14011KT 09/02 A2981 RMK A01 T00930023  RH  062%=      5-min Rain = 0
KOD1 100749Z 13012KT 09/02 A2981 RMK A01 T00920023  RH  062%=      5-min Rain = 0
KOD1 100750Z 13013KT 09/02 A2981 RMK A01 T00920023  RH  062%=      5-min Rain = 0
KOD1 100751Z 13014KT 09/02 A2981 RMK A01 T00910024  RH  063%=      5-min Rain = 0
KOD1 100752Z 13013KT 09/02 A2981 RMK A01 T00910024  RH  063%=      5-min Rain = 0
KOD1 100753Z 13013KT 09/02 A298 RMK A01 T00910024  RH  063%=      5-min Rain = 0
KOD1 100754Z 13013KT 09/02 A2981 RMK A01 T00910024  RH  063%=      5-min Rain = 0
KOD1 100755Z 14012KT 09/02 A2981 RMK A01 T00910024  RH  063%=      5-min Rain = 0
KOD1 100756Z 14012KT 09/02 A2981 RMK A01 T00910024  RH  063%=      5-min Rain = 0
KOD1 100757Z 13011KT 09/02 A2981 RMK A01 T00910024  RH  063%=      5-min Rain = 0
KOD1 100758Z 13012KT 09/02 A2981 RMK A01 T00900024  RH  063%=      5-min Rain = 0
KOD1 100759Z 13011KT 09/02 A2981 RMK A01 T00900024  RH  063%=      5-min Rain = 0
KOD1 100800Z 13012KT 09/02 A2981 RMK A01 T00900024  RH  063%=      5-min Rain = 0
KOD1 100801Z 14010KT 09/02 A2981 RMK A01 T00900024  RH  063%=      5-min Rain = 0
KOD1 100802Z 13011KT 09/02 A2981 RMK A01 T00890024  RH  064%=      5-min Rain = 0
KOD1 100803Z 13011KT 09/02 A2981 RMK A01 T00890024  RH  064%=      5-min Rain = 0
KOD1 100804Z 13012KT 09/02 A2981 RMK A01 T00890024  RH  064%=      5-min Rain = 0
KOD1 100805Z 13011KT 09/02 A2981 RMK A01 T00880024  RH  064%=      5-min Rain = 0
KOD1 100806Z 13012KT 09/02 A2981 RMK A01 T00880024  RH  064%=      5-min Rain = 0
KOD1 100807Z 13012KT 09/02 A2981 RMK A01 T00870024  RH  065%=      5-min Rain = 0
KOD1 100808Z 13012KT 09/02 A2981 RMK A01 T00870024  RH  065%=      5-min Rain = 0
KOD1 100809Z 13011KT 09/02 A2981 RMK A01 T00860024  RH  065%=      5-min Rain = 0
KOD1 100810Z 13011KT 09/02 A2981 RMK A01 T00860024  RH  065%=      5-min Rain = 0
KOD1 100811Z 13011KT 09/02 A2981 RMK A01 T00850024  RH  065%=      5-min Rain = 0
KOD1 100812Z 13011KT 08/02 A2981 RMK A01 T00840024  RH  066%=      5-min Rain = 0
KOD1 100813Z 13011KT 08/02 A2981 RMK A01 T00840024  RH  066%=      5-min Rain = 0
KOD1 100814Z 13012KT 08/02 A2981 RMK A01 T00840024  RH  066%=      5-min Rain = 0
KOD1 100815Z 13012KT 08/02 A298 RMK A01 T00830024  RH  066%=      5-min Rain = 0
KOD1 100816Z 13012KT 08/02 A298 RMK A01 T00830024  RH  066%=      5-min Rain = 0
KOD1 100817Z 13011KT 08/02 A298 RMK A01 T00820024  RH  066%=      5-min Rain = 0
KOD1 100818Z 13010KT 08/02 A298 RMK A01 T00820024  RH  067%=      5-min Rain = 0
KOD1 100819Z 13011KT 08/02 A298 RMK A01 T00810023  RH  067%=      5-min Rain = 0
KOD1 100820Z 13011KT 08/02 A298 RMK A01 T00810023  RH  067%=      5-min Rain = 0
KOD1 100821Z 13011KT 08/02 A298 RMK A01 T00800024  RH  067%=      5-min Rain = 0
KOD1 100822Z 14011KT 08/02 A2981 RMK A01 T00800023  RH  067%=      5-min Rain = 0
KOD1 100823Z 13011KT 08/02 A2981 RMK A01 T00790023  RH  068%=      5-min Rain = 0
KOD1 100824Z 13011KT 08/02 A2981 RMK A01 T00790023  RH  068%=      5-min Rain = 0
KOD1 100825Z 13011KT 08/02 A2981 RMK A01 T00780023  RH  068%=      5-min Rain = 0
KOD1 100826Z 14011KT 08/02 A2981 RMK A01 T00770022  RH  068%=      5-min Rain = 0
KOD1 100827Z 13010KT 08/02 A2981 RMK A01 T00770023  RH  069%=      5-min Rain = 0
KOD1 100828Z 13011KT 08/02 A298 RMK A01 T00770023  RH  069%=      5-min Rain = 0
KOD1 100829Z 13010KT 08/02 A298 RMK A01 T00760023  RH  069%=      5-min Rain = 0
KOD1 100830Z 13011KT 08/02 A298 RMK A01 T00770023  RH  069%=      5-min Rain = 0
KOD1 100831Z 13012KT 08/02 A298 RMK A01 T00770024  RH  069%=      5-min Rain = 0
KOD1 100832Z 13011KT 08/02 A298 RMK A01 T00780023  RH  068%=      5-min Rain = 0
KOD1 100833Z 13010KT 08/02 A298 RMK A01 T00780023  RH  068%=      5-min Rain = 0
KOD1 100834Z 14011KT 08/02 A298 RMK A01 T00780023  RH  068%=      5-min Rain = 0
KOD1 100835Z 14011KT 08/02 A298 RMK A01 T00780024  RH  069%=      5-min Rain = 0
KOD1 100836Z 14010KT 08/02 A2981 RMK A01 T00780024  RH  068%=      5-min Rain = 0
KOD1 100837Z 14010KT 08/02 A2981 RMK A01 T00780023  RH  068%=      5-min Rain = 0
KOD1 100838Z 13010KT 08/02 A2981 RMK A01 T00780024  RH  068%=      5-min Rain = 0
KOD1 100839Z 14011KT 08/02 A2981 RMK A01 T00780024  RH  068%=      5-min Rain = 0
KOD1 100840Z 14010KT 08/02 A2981 RMK A01 T00780024  RH  068%=      5-min Rain = 0
KOD1 100841Z 13010KT 08/02 A2981 RMK A01 T00790024  RH  068%=      5-min Rain = 0
KOD1 100842Z 14010KT 08/02 A2981 RMK A01 T00780024  RH  068%=      5-min Rain = 0
KOD1 100843Z 14009KT 08/02 A2981 RMK A01 T00780023  RH  068%=      5-min Rain = 0
KOD1 100844Z 13010KT 08/02 A2981 RMK A01 T00770023  RH  069%=      5-min Rain = 0
KOD1 100845Z 14010KT 08/02 A2981 RMK A01 T00770024  RH  069%=      5-min Rain = 0
KOD1 100846Z 14009KT 08/02 A2981 RMK A01 T00770024  RH  069%=      5-min Rain = 0
KOD1 100847Z 14008KT 08/02 A2981 RMK A01 T00770024  RH  069%=      5-min Rain = 0
KOD1 100848Z 14010KT 08/02 A2981 RMK A01 T00770024  RH  069%=      5-min Rain = 0
KOD1 100849Z 14010KT 08/02 A2981 RMK A01 T00780024  RH  069%=      5-min Rain = 0
KOD1 100850Z 14010KT 08/02 A2981 RMK A01 T00780024  RH  069%=      5-min Rain = 0
KOD1 100851Z 14010KT 08/02 A2981 RMK A01 T00770023  RH  069%=      5-min Rain = 0
KOD1 100852Z 14010KT 08/02 A2981 RMK A01 T00770023  RH  069%=      5-min Rain = 0
KOD1 100853Z 13011KT 08/02 A2981 RMK A01 T00760023  RH  069%=      5-min Rain = 0
KOD1 100854Z 13011KT 08/02 A2981 RMK A01 T00760023  RH  069%=      5-min Rain = 0
KOD1 100855Z 13011KT 08/02 A2981 RMK A01 T00760023  RH  069%=      5-min Rain = 0
KOD1 100856Z 13011KT 08/02 A2981 RMK A01 T00760024  RH  069%=      5-min Rain = 0
KOD1 100857Z 14011KT 08/02 A2981 RMK A01 T00760023  RH  069%=      5-min Rain = 0
KOD1 100858Z 13010KT 08/02 A298 RMK A01 T00760023  RH  069%=      5-min Rain = 0
KOD1 100859Z 13011KT 08/02 A298 RMK A01 T00760023  RH  069%=      5-min Rain = 0
KOD1 100900Z 13011KT 08/02 A298 RMK A01 T00760023  RH  069%=      5-min Rain = 0
KOD1 100901Z 13011KT 08/02 A298 RMK A01 T00750023  RH  070%=      5-min Rain = 0
KOD1 100902Z 13011KT 08/02 A298 RMK A01 T00750024  RH  070%=      5-min Rain = 0
KOD1 100903Z 13010KT 08/02 A2981 RMK A01 T00750023  RH  070%=      5-min Rain = 0
KOD1 100904Z 13010KT 08/02 A298 RMK A01 T00750023  RH  070%=      5-min Rain = 0
KOD1 100905Z 13011KT 08/02 A298 RMK A01 T00750024  RH  070%=      5-min Rain = 0
KOD1 100906Z 13010KT 08/02 A2981 RMK A01 T00760024  RH  070%=      5-min Rain = 0
KOD1 100907Z 13010KT 08/02 A2981 RMK A01 T00750024  RH  070%=      5-min Rain = 0
KOD1 100908Z 13010KT 08/02 A2981 RMK A01 T00750024  RH  070%=      5-min Rain = 0
KOD1 100909Z 13010KT 08/02 A298 RMK A01 T00750024  RH  070%=      5-min Rain = 0
KOD1 100910Z 13011KT 08/02 A298 RMK A01 T00750024  RH  070%=      5-min Rain = 0
KOD1 100911Z 13012KT 08/02 A298 RMK A01 T00750024  RH  070%=      5-min Rain = 0
KOD1 100912Z 13010KT 08/02 A298 RMK A01 T00750024  RH  070%=      5-min Rain = 0
KOD1 100913Z 13010KT 08/02 A298 RMK A01 T00750024  RH  070%=      5-min Rain = 0
KOD1 100914Z 13010KT 08/02 A298 RMK A01 T00750024  RH  070%=      5-min Rain = 0
KOD1 100915Z 13009KT 07/02 A298 RMK A01 T00740023  RH  070%=      5-min Rain = 0
KOD1 100916Z 13010KT 07/02 A298 RMK A01 T00740024  RH  070%=      5-min Rain = 0
KOD1 100917Z 13010KT 07/02 A298 RMK A01 T00740024  RH  070%=      5-min Rain = 0
KOD1 100918Z 13010KT 07/02 A298 RMK A01 T00740023  RH  070%=      5-min Rain = 0
KOD1 100919Z 13010KT 07/02 A298 RMK A01 T00740024  RH  070%=      5-min Rain = 0
KOD1 100920Z 13011KT 07/02 A298 RMK A01 T00730023  RH  070%=      5-min Rain = 0
KOD1 100921Z 13011KT 07/02 A298 RMK A01 T00730023  RH  071%=      5-min Rain = 0
KOD1 100922Z 13011KT 07/02 A2979 RMK A01 T00730024  RH  071%=      5-min Rain = 0
KOD1 100923Z 13012KT 07/02 A2979 RMK A01 T00730023  RH  071%=      5-min Rain = 0
KOD1 100924Z 13012KT 07/02 A2979 RMK A01 T00730024  RH  071%=      5-min Rain = 0
KOD1 100925Z 13010KT 07/02 A2979 RMK A01 T00730023  RH  071%=      5-min Rain = 0
KOD1 100926Z 13011KT 07/02 A2979 RMK A01 T00720023  RH  071%=      5-min Rain = 0
KOD1 100927Z 13011KT 07/02 A2979 RMK A01 T00720023  RH  071%=      5-min Rain = 0
KOD1 100928Z 13012KT 07/02 A2979 RMK A01 T00720024  RH  071%=      5-min Rain = 0
KOD1 100929Z 13011KT 07/02 A2979 RMK A01 T00730024  RH  071%=      5-min Rain = 0
KOD1 100930Z 13010KT 07/02 A2979 RMK A01 T00730024  RH  071%=      5-min Rain = 0
KOD1 100931Z 13012KT 07/02 A2979 RMK A01 T00720023  RH  071%=      5-min Rain = 0
KOD1 100932Z 13013KT 07/02 A2979 RMK A01 T00720024  RH  071%=      5-min Rain = 0
KOD1 100933Z 13011KT 07/02 A2979 RMK A01 T00720023  RH  071%=      5-min Rain = 0
KOD1 100934Z 13010KT 07/02 A2979 RMK A01 T00710023  RH  071%=      5-min Rain = 0
KOD1 100935Z 13012KT 07/02 A2979 RMK A01 T00710023  RH  072%=      5-min Rain = 0
KOD1 100936Z 13011KT 07/02 A2979 RMK A01 T00700023  RH  072%=      5-min Rain = 0
KOD1 100937Z 13011KT 07/02 A2979 RMK A01 T00700023  RH  072%=      5-min Rain = 0
KOD1 100938Z 13012KT 07/02 A2979 RMK A01 T00700023  RH  072%=      5-min Rain = 0
KOD1 100939Z 13011KT 07/02 A2979 RMK A01 T00700024  RH  072%=      5-min Rain = 0
KOD1 100940Z 13011KT 07/02 A2979 RMK A01 T00700024  RH  072%=      5-min Rain = 0
KOD1 100941Z 13011KT 07/02 A2979 RMK A01 T00700023  RH  072%=      5-min Rain = 0
KOD1 100942Z 13011KT 07/02 A2979 RMK A01 T00700023  RH  072%=      5-min Rain = 0
KOD1 100943Z 14010KT 07/02 A2979 RMK A01 T00700023  RH  072%=      5-min Rain = 0
KOD1 100944Z 14012KT 07/02 A2979 RMK A01 T00700024  RH  072%=      5-min Rain = 0
KOD1 100945Z 14011KT 07/02 A2979 RMK A01 T00710024  RH  072%=      5-min Rain = 0
KOD1 100946Z 14009KT 07/02 A2979 RMK A01 T00700023  RH  072%=      5-min Rain = 0
KOD1 100947Z 14010KT 07/02 A2979 RMK A01 T00700023  RH  072%=      5-min Rain = 0
KOD1 100948Z 13011KT 07/02 A2979 RMK A01 T00710024  RH  072%=      5-min Rain = 0
KOD1 100949Z 14010KT 07/02 A2979 RMK A01 T00710023  RH  072%=      5-min Rain = 0
KOD1 100950Z 14009KT 07/02 A2979 RMK A01 T00700023  RH  072%=      5-min Rain = 0
KOD1 100951Z 14010KT 07/02 A2979 RMK A01 T00700023  RH  072%=      5-min Rain = 0
KOD1 100952Z 14009KT 07/02 A2979 RMK A01 T00700023  RH  072%=      5-min Rain = 0
KOD1 100953Z 14011KT 07/02 A2979 RMK A01 T00690023  RH  072%=      5-min Rain = 0
KOD1 100954Z 14009KT 07/02 A2979 RMK A01 T00690023  RH  072%=      5-min Rain = 0
KOD1 100955Z 14010KT 07/02 A2979 RMK A01 T00690023  RH  073%=      5-min Rain = 0
KOD1 100956Z 14011KT 07/02 A2979 RMK A01 T00700024  RH  073%=      5-min Rain = 0
KOD1 100957Z 14011KT 07/02 A2979 RMK A01 T00710024  RH  072%=      5-min Rain = 0
KOD1 100958Z 14011KT 07/02 A2979 RMK A01 T00710024  RH  072%=      5-min Rain = 0
KOD1 100959Z 14011KT 07/02 A2979 RMK A01 T00720024  RH  072%=      5-min Rain = 0
KOD1 101000Z 14011KT 07/02 A2979 RMK A01 T00730024  RH  071%=      5-min Rain = 0
KOD1 101001Z 14009KT 07/02 A2979 RMK A01 T00720023  RH  071%=      5-min Rain = 0
KOD1 101002Z 14011KT 07/02 A2979 RMK A01 T00720024  RH  072%=      5-min Rain = 0
KOD1 101003Z 14011KT 07/03 A2979 RMK A01 T00730025  RH  072%=      5-min Rain = 0
KOD1 101004Z 14009KT 07/02 A2979 RMK A01 T00730024  RH  071%=      5-min Rain = 0
KOD1 101005Z 14011KT 07/02 A2979 RMK A01 T00730024  RH  071%=      5-min Rain = 0
KOD1 101006Z 14010KT 07/02 A2979 RMK A01 T00730024  RH  071%=      5-min Rain = 0
KOD1 101007Z 14009KT 07/02 A2979 RMK A01 T00730024  RH  071%=      5-min Rain = 0
KOD1 101008Z 14010KT 07/02 A2979 RMK A01 T00730024  RH  071%=      5-min Rain = 0
KOD1 101009Z 14009KT 07/02 A2979 RMK A01 T00730024  RH  071%=      5-min Rain = 0
KOD1 101010Z 14011KT 07/02 A2979 RMK A01 T00730024  RH  071%=      5-min Rain = 0
KOD1 101011Z 14011KT 07/02 A2979 RMK A01 T00740024  RH  071%=      5-min Rain = 0
KOD1 101012Z 15011KT 07/03 A2979 RMK A01 T00740025  RH  071%=      5-min Rain = 0
KOD1 101013Z 14011KT 08/02 A2979 RMK A01 T00750024  RH  070%=      5-min Rain = 0
KOD1 101014Z 14010KT 08/02 A2979 RMK A01 T00750024  RH  070%=      5-min Rain = 0
KOD1 101015Z 14012KT 07/02 A2979 RMK A01 T00740024  RH  070%=      5-min Rain = 0
KOD1 101016Z 14011KT 07/02 A2979 RMK A01 T00740024  RH  070%=      5-min Rain = 0
KOD1 101017Z 15012KT 08/02 A2979 RMK A01 T00750024  RH  070%=      5-min Rain = 0
KOD1 101018Z 14012KT 08/03 A2979 RMK A01 T00750025  RH  070%=      5-min Rain = 0
KOD1 101019Z 14012KT 08/02 A2979 RMK A01 T00760024  RH  070%=      5-min Rain = 0
KOD1 101020Z 14013KT 08/03 A2979 RMK A01 T00760025  RH  070%=      5-min Rain = 0
KOD1 101021Z 14012KT 08/02 A2978 RMK A01 T00770024  RH  069%=      5-min Rain = 0
KOD1 101022Z 15012KT 08/02 A2978 RMK A01 T00760024  RH  069%=      5-min Rain = 0
KOD1 101023Z 14014KT 08/03 A2978 RMK A01 T00760025  RH  070%=      5-min Rain = 0
KOD1 101024Z 15013KT 08/02 A2978 RMK A01 T00770024  RH  069%=      5-min Rain = 0
KOD1 101025Z 15012KT 08/02 A2978 RMK A01 T00770024  RH  069%=      5-min Rain = 0
KOD1 101026Z 15013KT 08/02 A2978 RMK A01 T00770024  RH  069%=      5-min Rain = 0
KOD1 101027Z 15013KT 08/03 A2978 RMK A01 T00770025  RH  069%=      5-min Rain = 0
KOD1 101028Z 15012KT 08/03 A2978 RMK A01 T00780025  RH  069%=      5-min Rain = 0
KOD1 101029Z 15013KT 08/02 A2978 RMK A01 T00780024  RH  069%=      5-min Rain = 0
KOD1 101030Z 15012KT 08/02 A2978 RMK A01 T00780024  RH  069%=      5-min Rain = 0
KOD1 101031Z 15013KT 08/02 A2978 RMK A01 T00770024  RH  069%=      5-min Rain = 0
KOD1 101032Z 15013KT 08/03 A2978 RMK A01 T00780025  RH  069%=      5-min Rain = 0
KOD1 101033Z 15013KT 08/03 A2978 RMK A01 T00780025  RH  069%=      5-min Rain = 0
KOD1 101034Z 15014KT 08/02 A2978 RMK A01 T00770024  RH  069%=      5-min Rain = 0
KOD1 101035Z 15013KT 08/02 A2978 RMK A01 T00770024  RH  069%=      5-min Rain = 0
KOD1 101036Z 15012KT 08/02 A2978 RMK A01 T00770024  RH  069%=      5-min Rain = 0
KOD1 101037Z 15014KT 08/03 A2978 RMK A01 T00770025  RH  070%=      5-min Rain = 0
KOD1 101038Z 15014KT 08/02 A2978 RMK A01 T00770024  RH  069%=      5-min Rain = 0
KOD1 101039Z 15012KT 08/02 A2978 RMK A01 T00760024  RH  069%=      5-min Rain = 0
KOD1 101040Z 15012KT 08/02 A2978 RMK A01 T00760024  RH  070%=      5-min Rain = 0
KOD1 101041Z 15013KT 08/02 A2978 RMK A01 T00760024  RH  070%=      5-min Rain = 0
KOD1 101042Z 15012KT 08/02 A2978 RMK A01 T00750024  RH  070%=      5-min Rain = 0
KOD1 101043Z 14013KT 08/02 A2978 RMK A01 T00750024  RH  070%=      5-min Rain = 0
KOD1 101044Z 14011KT 08/02 A2978 RMK A01 T00750024  RH  070%=      5-min Rain = 0
KOD1 101045Z 14012KT 08/02 A2978 RMK A01 T00750024  RH  070%=      5-min Rain = 0
KOD1 101046Z 15012KT 08/02 A2978 RMK A01 T00750024  RH  070%=      5-min Rain = 0
KOD1 101047Z 14011KT 08/02 A2978 RMK A01 T00750024  RH  070%=      5-min Rain = 0
KOD1 101048Z 15012KT 08/02 A2978 RMK A01 T00760024  RH  070%=      5-min Rain = 0
KOD1 101049Z 14012KT 08/02 A2978 RMK A01 T00750024  RH  070%=      5-min Rain = 0
KOD1 101050Z 14012KT 08/03 A2978 RMK A01 T00760025  RH  070%=      5-min Rain = 0
KOD1 101051Z 14011KT 08/02 A2978 RMK A01 T00760024  RH  070%=      5-min Rain = 0
KOD1 101052Z 14010KT 08/02 A2978 RMK A01 T00760024  RH  070%=      5-min Rain = 0
KOD1 101053Z 14010KT 08/02 A2978 RMK A01 T00750024  RH  070%=      5-min Rain = 0
KOD1 101054Z 14011KT 08/02 A2978 RMK A01 T00750024  RH  070%=      5-min Rain = 0
KOD1 101055Z 14011KT 08/02 A2978 RMK A01 T00750024  RH  070%=      5-min Rain = 0
KOD1 101056Z 14011KT 07/02 A2978 RMK A01 T00740023  RH  070%=      5-min Rain = 0
KOD1 101057Z 14012KT 07/02 A2978 RMK A01 T00740024  RH  070%=      5-min Rain = 0
KOD1 101058Z 14011KT 07/02 A2978 RMK A01 T00740023  RH  070%=      5-min Rain = 0
KOD1 101059Z 14011KT 07/02 A2978 RMK A01 T00730023  RH  070%=      5-min Rain = 0
KOD1 101100Z 14011KT 07/02 A2978 RMK A01 T00730023  RH  071%=      5-min Rain = 0
KOD1 101101Z 14011KT 07/02 A2977 RMK A01 T00720023  RH  071%=      5-min Rain = 0
KOD1 101102Z 14011KT 07/02 A2977 RMK A01 T00720023  RH  071%=      5-min Rain = 0
KOD1 101103Z 14011KT 07/02 A2977 RMK A01 T00710022  RH  071%=      5-min Rain = 0
KOD1 101104Z 14010KT 07/02 A2977 RMK A01 T00710023  RH  071%=      5-min Rain = 0
KOD1 101105Z 14010KT 07/02 A2977 RMK A01 T00700022  RH  072%=      5-min Rain = 0
KOD1 101106Z 14010KT 07/02 A2977 RMK A01 T00700023  RH  072%=      5-min Rain = 0
KOD1 101107Z 14010KT 07/02 A2978 RMK A01 T00690023  RH  072%=      5-min Rain = 0
KOD1 101108Z 14009KT 07/02 A2978 RMK A01 T00690023  RH  072%=      5-min Rain = 0
KOD1 101109Z 14010KT 07/02 A2978 RMK A01 T00690023  RH  073%=      5-min Rain = 0
KOD1 101110Z 14011KT 07/02 A2978 RMK A01 T00690023  RH  073%=      5-min Rain = 0
KOD1 101111Z 14010KT 07/02 A2978 RMK A01 T00690023  RH  073%=      5-min Rain = 0
KOD1 101112Z 14009KT 07/02 A2978 RMK A01 T00680023  RH  073%=      5-min Rain = 0
KOD1 101113Z 14009KT 07/02 A2978 RMK A01 T00680023  RH  073%=      5-min Rain = 0
KOD1 101114Z 14010KT 07/02 A2978 RMK A01 T00680023  RH  073%=      5-min Rain = 0
KOD1 101115Z 14010KT 07/02 A2978 RMK A01 T00680023  RH  073%=      5-min Rain = 0
KOD1 101116Z 14010KT 07/02 A2978 RMK A01 T00680023  RH  073%=      5-min Rain = 0
KOD1 101117Z 14009KT 07/02 A2978 RMK A01 T00690024  RH  073%=      5-min Rain = 0
KOD1 101118Z 14008KT 07/02 A2978 RMK A01 T00690023  RH  072%=      5-min Rain = 0
KOD1 101119Z 14009KT 07/02 A2978 RMK A01 T00690023  RH  072%=      5-min Rain = 0
KOD1 101120Z 14009KT 07/02 A2978 RMK A01 T00690023  RH  073%=      5-min Rain = 0
KOD1 101121Z 14008KT 07/02 A2978 RMK A01 T00690023  RH  073%=      5-min Rain = 0
KOD1 101122Z 14009KT 07/02 A2978 RMK A01 T00680023  RH  073%=      5-min Rain = 0
KOD1 101123Z 14009KT 07/02 A2978 RMK A01 T00680023  RH  073%=      5-min Rain = 0
KOD1 101124Z 14009KT 07/02 A2978 RMK A01 T00690023  RH  073%=      5-min Rain = 0
KOD1 101125Z 14008KT 07/02 A2979 RMK A01 T00680023  RH  073%=      5-min Rain = 0
KOD1 101126Z 14008KT 07/02 A2979 RMK A01 T00680023  RH  073%=      5-min Rain = 0
KOD1 101127Z 14008KT 07/02 A2978 RMK A01 T00670023  RH  073%=      5-min Rain = 0
KOD1 101128Z 13008KT 07/02 A2978 RMK A01 T00670023  RH  073%=      5-min Rain = 0
KOD1 101129Z 14008KT 07/02 A2978 RMK A01 T00670022  RH  073%=      5-min Rain = 0
KOD1 101130Z 13009KT 07/02 A2978 RMK A01 T00660022  RH  074%=      5-min Rain = 0
KOD1 101131Z 13009KT 07/02 A2978 RMK A01 T00650022  RH  074%=      5-min Rain = 0
KOD1 101132Z 14009KT 07/02 A2978 RMK A01 T00650023  RH  074%=      5-min Rain = 0
KOD1 101133Z 13009KT 07/02 A2978 RMK A01 T00650023  RH  074%=      5-min Rain = 0
KOD1 101134Z 13010KT 07/02 A2978 RMK A01 T00650023  RH  074%=      5-min Rain = 0
KOD1 101135Z 13009KT 07/02 A2978 RMK A01 T00650022  RH  074%=      5-min Rain = 0
KOD1 101136Z 13009KT 06/02 A2978 RMK A01 T00640022  RH  074%=      5-min Rain = 0
KOD1 101137Z 14009KT 06/02 A2979 RMK A01 T00640022  RH  075%=      5-min Rain = 0
KOD1 101138Z 13009KT 06/02 A2979 RMK A01 T00640022  RH  075%=      5-min Rain = 0
KOD1 101139Z 13008KT 06/02 A2979 RMK A01 T00640022  RH  075%=      5-min Rain = 0
KOD1 101140Z 13009KT 06/02 A2979 RMK A01 T00630022  RH  075%=      5-min Rain = 0
KOD1 101141Z 14009KT 06/02 A2978 RMK A01 T00630022  RH  075%=      5-min Rain = 0
KOD1 101142Z 13009KT 06/02 A2978 RMK A01 T00630022  RH  075%=      5-min Rain = 0
KOD1 101143Z 14010KT 06/02 A2978 RMK A01 T00620022  RH  075%=      5-min Rain = 0
KOD1 101144Z 14010KT 06/02 A2978 RMK A01 T00620022  RH  075%=      5-min Rain = 0
KOD1 101145Z 14010KT 06/02 A2978 RMK A01 T00620022  RH  076%=      5-min Rain = 0
KOD1 101146Z 14010KT 06/02 A2978 RMK A01 T00620022  RH  076%=      5-min Rain = 0
KOD1 101147Z 14009KT 06/02 A2978 RMK A01 T00610022  RH  076%=      5-min Rain = 0
KOD1 101148Z 14009KT 06/02 A2978 RMK A01 T00610022  RH  076%=      5-min Rain = 0
KOD1 101149Z 14010KT 06/02 A2978 RMK A01 T00610022  RH  076%=      5-min Rain = 0
KOD1 101150Z 14009KT 06/02 A2978 RMK A01 T00600022  RH  076%=      5-min Rain = 0
KOD1 101151Z 14010KT 06/02 A2979 RMK A01 T00600022  RH  076%=      5-min Rain = 0
KOD1 101152Z 14010KT 06/02 A2979 RMK A01 T00610022  RH  076%=      5-min Rain = 0
KOD1 101153Z 14010KT 06/02 A2978 RMK A01 T00610022  RH  076%=      5-min Rain = 0
KOD1 101154Z 14010KT 06/02 A2978 RMK A01 T00610022  RH  076%=      5-min Rain = 0
KOD1 101155Z 14010KT 06/02 A2978 RMK A01 T00610022  RH  076%=      5-min Rain = 0
KOD1 101156Z 14011KT 06/02 A2978 RMK A01 T00610022  RH  076%=      5-min Rain = 0
KOD1 101157Z 14011KT 06/02 A2978 RMK A01 T00610023  RH  076%=      5-min Rain = 0
KOD1 101158Z 14011KT 06/02 A2978 RMK A01 T00620023  RH  076%=      5-min Rain = 0
KOD1 101159Z 14011KT 06/02 A2978 RMK A01 T00620022  RH  076%=      5-min Rain = 0
KOD1 101200Z 14012KT 06/02 A2978 RMK A01 T00630023  RH  076%=      5-min Rain = 0
KOD1 101201Z 14011KT 06/02 A2978 RMK A01 T00640024  RH  075%=      5-min Rain = 0
KOD1 101202Z 14012KT 06/02 A2978 RMK A01 T00640022  RH  075%=      5-min Rain = 0
KOD1 101203Z 14012KT 06/02 A2978 RMK A01 T00640023  RH  075%=      5-min Rain = 0
KOD1 101204Z 14010KT 06/02 A2978 RMK A01 T00640023  RH  075%=      5-min Rain = 0
KOD1 101205Z 14011KT 06/02 A2978 RMK A01 T00630023  RH  075%=      5-min Rain = 0
KOD1 101206Z 14011KT 06/02 A2978 RMK A01 T00630023  RH  075%=      5-min Rain = 0
KOD1 101207Z 15011KT 06/02 A2978 RMK A01 T00630023  RH  075%=      5-min Rain = 0
KOD1 101208Z 14011KT 06/02 A2978 RMK A01 T00630023  RH  075%=      5-min Rain = 0
KOD1 101209Z 14011KT 06/02 A2978 RMK A01 T00630022  RH  075%=      5-min Rain = 0
KOD1 101210Z 14012KT 06/02 A2978 RMK A01 T00630023  RH  075%=      5-min Rain = 0
KOD1 101211Z 14012KT 06/02 A2978 RMK A01 T00630022  RH  075%=      5-min Rain = 0
KOD1 101212Z 14012KT 06/02 A2978 RMK A01 T00630023  RH  075%=      5-min Rain = 0
KOD1 101213Z 14011KT 06/02 A2978 RMK A01 T00630023  RH  075%=      5-min Rain = 0
KOD1 101214Z 14011KT 06/02 A2978 RMK A01 T00630023  RH  075%=      5-min Rain = 0
KOD1 101215Z 14011KT 06/02 A2978 RMK A01 T00640023  RH  075%=      5-min Rain = 0
KOD1 101216Z 14012KT 06/02 A2978 RMK A01 T00640023  RH  075%=      5-min Rain = 0
KOD1 101217Z 14012KT 06/02 A2978 RMK A01 T00640023  RH  075%=      5-min Rain = 0
KOD1 101218Z 14013KT 06/02 A2978 RMK A01 T00640023  RH  075%=      5-min Rain = 0
KOD1 101219Z 14012KT 06/02 A2978 RMK A01 T00640023  RH  075%=      5-min Rain = 0
KOD1 101220Z 14012KT 06/02 A2977 RMK A01 T00640022  RH  075%=      5-min Rain = 0
KOD1 101221Z 14011KT 06/02 A2977 RMK A01 T00620021  RH  075%=      5-min Rain = 0
KOD1 101222Z 14012KT 06/02 A2977 RMK A01 T00620023  RH  076%=      5-min Rain = 0
KOD1 101223Z 14012KT 06/02 A2978 RMK A01 T00630022  RH  075%=      5-min Rain = 0
KOD1 101224Z 14011KT 06/02 A2978 RMK A01 T00620022  RH  075%=      5-min Rain = 0
KOD1 101225Z 14011KT 06/02 A2978 RMK A01 T00620022  RH  076%=      5-min Rain = 0
KOD1 101226Z 14011KT 06/02 A2978 RMK A01 T00620022  RH  076%=      5-min Rain = 0
KOD1 101227Z 14011KT 06/02 A2978 RMK A01 T00620022  RH  076%=      5-min Rain = 0
KOD1 101228Z 14012KT 06/02 A2978 RMK A01 T00610022  RH  076%=      5-min Rain = 0
KOD1 101229Z 14011KT 06/02 A2978 RMK A01 T00620023  RH  076%=      5-min Rain = 0
KOD1 101230Z 14011KT 06/02 A2978 RMK A01 T00620023  RH  076%=      5-min Rain = 0
KOD1 101231Z 14011KT 06/02 A2978 RMK A01 T00620022  RH  076%=      5-min Rain = 0
KOD1 101232Z 14011KT 06/02 A2978 RMK A01 T00620023  RH  076%=      5-min Rain = 0
KOD1 101233Z 14010KT 06/02 A2978 RMK A01 T00620022  RH  076%=      5-min Rain = 0
KOD1 101234Z 14011KT 06/02 A2978 RMK A01 T00620022  RH  076%=      5-min Rain = 0
KOD1 101235Z 14010KT 06/02 A2978 RMK A01 T00610021  RH  076%=      5-min Rain = 0
KOD1 101236Z 13010KT 06/02 A2978 RMK A01 T00610022  RH  076%=      5-min Rain = 0
KOD1 101237Z 14011KT 06/02 A2978 RMK A01 T00600021  RH  076%=      5-min Rain = 0
KOD1 101238Z 14011KT 06/02 A2978 RMK A01 T00590021  RH  077%=      5-min Rain = 0
KOD1 101239Z 13011KT 06/02 A2977 RMK A01 T00590021  RH  077%=      5-min Rain = 0
KOD1 101240Z 14011KT 06/02 A2977 RMK A01 T00580021  RH  077%=      5-min Rain = 0
KOD1 101241Z 13012KT 06/02 A2977 RMK A01 T00570021  RH  077%=      5-min Rain = 0
KOD1 101242Z 14011KT 06/02 A2977 RMK A01 T00570021  RH  078%=      5-min Rain = 0
KOD1 101243Z 14012KT 06/02 A2977 RMK A01 T00570022  RH  078%=      5-min Rain = 0
KOD1 101244Z 13012KT 06/02 A2977 RMK A01 T00570022  RH  078%=      5-min Rain = 0
KOD1 101245Z 14011KT 06/02 A2977 RMK A01 T00570021  RH  078%=      5-min Rain = 0
KOD1 101246Z 14012KT 06/02 A2977 RMK A01 T00560021  RH  078%=      5-min Rain = 0
KOD1 101247Z 14011KT 06/02 A2977 RMK A01 T00560021  RH  078%=      5-min Rain = 0
KOD1 101248Z 14012KT 06/02 A2977 RMK A01 T00560021  RH  078%=      5-min Rain = 0
KOD1 101249Z 13011KT 06/02 A2977 RMK A01 T00560022  RH  078%=      5-min Rain = 0
KOD1 101250Z 14011KT 06/02 A2977 RMK A01 T00560021  RH  078%=      5-min Rain = 0
KOD1 101251Z 13011KT 06/02 A2977 RMK A01 T00560021  RH  078%=      5-min Rain = 0
KOD1 101252Z 13010KT 06/02 A2977 RMK A01 T00560021  RH  078%=      5-min Rain = 0
KOD1 101253Z 13011KT 06/02 A2977 RMK A01 T00560021  RH  079%=      5-min Rain = 0
KOD1 101254Z 13010KT 06/02 A2977 RMK A01 T00550021  RH  079%=      5-min Rain = 0
KOD1 101255Z 13011KT 06/02 A2977 RMK A01 T00550022  RH  079%=      5-min Rain = 0
KOD1 101256Z 13010KT 06/02 A2977 RMK A01 T00550021  RH  079%=      5-min Rain = 0
KOD1 101257Z 14010KT 06/02 A2977 RMK A01 T00550022  RH  079%=      5-min Rain = 0
KOD1 101258Z 13010KT 06/02 A2977 RMK A01 T00550022  RH  079%=      5-min Rain = 0
KOD1 101259Z 13011KT 06/02 A2977 RMK A01 T00550021  RH  079%=      5-min Rain = 0
KOD1 101300Z 13011KT 06/02 A2977 RMK A01 T00550021  RH  079%=      5-min Rain = 0
KOD1 101301Z 13010KT 06/02 A2977 RMK A01 T00550021  RH  079%=      5-min Rain = 0
KOD1 101302Z 13010KT 06/02 A2977 RMK A01 T00550022  RH  079%=      5-min Rain = 0
KOD1 101303Z 14011KT 06/02 A2977 RMK A01 T00550022  RH  079%=      5-min Rain = 0
KOD1 101304Z 14010KT 05/02 A2977 RMK A01 T00540021  RH  079%=      5-min Rain = 0
KOD1 101305Z 14011KT 06/02 A2977 RMK A01 T00550022  RH  079%=      5-min Rain = 0
KOD1 101306Z 14011KT 06/02 A2977 RMK A01 T00550022  RH  079%=      5-min Rain = 0
KOD1 101307Z 14010KT 06/02 A2977 RMK A01 T00550022  RH  079%=      5-min Rain = 0
KOD1 101308Z 14011KT 06/02 A2977 RMK A01 T00550021  RH  079%=      5-min Rain = 0
KOD1 101309Z 14011KT 06/02 A2977 RMK A01 T00550021  RH  079%=      5-min Rain = 0
KOD1 101310Z 14010KT 05/02 A2978 RMK A01 T00540021  RH  079%=      5-min Rain = 0
KOD1 101311Z 14013KT 06/02 A2978 RMK A01 T00550022  RH  080%=      5-min Rain = 0
KOD1 101312Z 14012KT 06/02 A2978 RMK A01 T00550023  RH  079%=      5-min Rain = 0
KOD1 101313Z 14012KT 06/02 A2978 RMK A01 T00560022  RH  079%=      5-min Rain = 0
KOD1 101314Z 14013KT 06/02 A2978 RMK A01 T00560022  RH  079%=      5-min Rain = 0
KOD1 101315Z 14013KT 06/02 A2978 RMK A01 T00570022  RH  079%=      5-min Rain = 0
KOD1 101316Z 14012KT 06/02 A2978 RMK A01 T00570022  RH  078%=      5-min Rain = 0
KOD1 101317Z 14011KT 06/02 A2978 RMK A01 T00560022  RH  078%=      5-min Rain = 0
KOD1 101318Z 14011KT 06/02 A2978 RMK A01 T00560022  RH  078%=      5-min Rain = 0
KOD1 101319Z 14012KT 06/02 A2978 RMK A01 T00560022  RH  079%=      5-min Rain = 0
KOD1 101320Z 14010KT 06/02 A2978 RMK A01 T00560021  RH  079%=      5-min Rain = 0
KOD1 101321Z 14011KT 06/02 A2978 RMK A01 T00550021  RH  079%=      5-min Rain = 0
KOD1 101322Z 14012KT 06/02 A2978 RMK A01 T00550022  RH  079%=      5-min Rain = 0
KOD1 101323Z 14011KT 06/02 A2978 RMK A01 T00550023  RH  079%=      5-min Rain = 0
KOD1 101324Z 14012KT 06/02 A2978 RMK A01 T00560022  RH  079%=      5-min Rain = 0
KOD1 101325Z 14011KT 06/02 A2978 RMK A01 T00550021  RH  079%=      5-min Rain = 0
KOD1 101326Z 13011KT 06/02 A2978 RMK A01 T00550021  RH  079%=      5-min Rain = 0
KOD1 101327Z 14010KT 06/02 A2978 RMK A01 T00550021  RH  079%=      5-min Rain = 0
KOD1 101328Z 14010KT 05/02 A2978 RMK A01 T00540021  RH  079%=      5-min Rain = 0
KOD1 101329Z 14011KT 05/02 A2978 RMK A01 T00540022  RH  080%=      5-min Rain = 0
KOD1 101330Z 14011KT 05/02 A2978 RMK A01 T00540021  RH  079%=      5-min Rain = 0
KOD1 101331Z 14010KT 05/02 A2978 RMK A01 T00530020  RH  079%=      5-min Rain = 0
KOD1 101332Z 14010KT 05/02 A2978 RMK A01 T00520020  RH  080%=      5-min Rain = 0
KOD1 101333Z 14011KT 05/02 A2978 RMK A01 T00520021  RH  080%=      5-min Rain = 0
KOD1 101334Z 14009KT 05/02 A2978 RMK A01 T00520021  RH  080%=      5-min Rain = 0
KOD1 101335Z 14010KT 05/02 A2978 RMK A01 T00520021  RH  080%=      5-min Rain = 0
KOD1 101336Z 14010KT 05/02 A2978 RMK A01 T00520021  RH  080%=      5-min Rain = 0
KOD1 101337Z 14009KT 05/02 A2978 RMK A01 T00510021  RH  080%=      5-min Rain = 0
KOD1 101338Z 13010KT 05/02 A2978 RMK A01 T00510020  RH  080%=      5-min Rain = 0
KOD1 101339Z 14009KT 05/02 A2978 RMK A01 T00510021  RH  081%=      5-min Rain = 0
KOD1 101340Z 14010KT 05/02 A2978 RMK A01 T00510021  RH  081%=      5-min Rain = 0
KOD1 101341Z 14009KT 05/02 A2978 RMK A01 T00510021  RH  081%=      5-min Rain = 0
KOD1 101342Z 13009KT 05/02 A2978 RMK A01 T00510021  RH  081%=      5-min Rain = 0
KOD1 101343Z 14010KT 05/02 A2978 RMK A01 T00510020  RH  081%=      5-min Rain = 0
KOD1 101344Z 14010KT 05/02 A2978 RMK A01 T00510021  RH  081%=      5-min Rain = 0
KOD1 101345Z 13009KT 05/02 A2978 RMK A01 T00510021  RH  081%=      5-min Rain = 0
KOD1 101346Z 13009KT 05/02 A2978 RMK A01 T00510021  RH  081%=      5-min Rain = 0
KOD1 101347Z 13009KT 05/02 A2978 RMK A01 T00510021  RH  081%=      5-min Rain = 0
KOD1 101348Z 13009KT 05/02 A2978 RMK A01 T00510021  RH  081%=      5-min Rain = 0
KOD1 101349Z 13008KT 05/02 A2978 RMK A01 T00510021  RH  081%=      5-min Rain = 0
KOD1 101350Z 14009KT 05/02 A2978 RMK A01 T00510021  RH  081%=      5-min Rain = 0
KOD1 101351Z 14010KT 05/02 A2978 RMK A01 T00520022  RH  081%=      5-min Rain = 0
KOD1 101352Z 14010KT 05/02 A2978 RMK A01 T00530023  RH  081%=      5-min Rain = 0
KOD1 101353Z 14009KT 05/02 A2978 RMK A01 T00540023  RH  080%=      5-min Rain = 0
KOD1 101354Z 14009KT 05/02 A2978 RMK A01 T00540022  RH  080%=      5-min Rain = 0
KOD1 101355Z 14009KT 05/02 A2978 RMK A01 T00540022  RH  080%=      5-min Rain = 0
KOD1 101356Z 14010KT 06/02 A2978 RMK A01 T00550022  RH  080%=      5-min Rain = 0
KOD1 101357Z 14009KT 05/02 A2978 RMK A01 T00540021  RH  079%=      5-min Rain = 0
KOD1 101358Z 14009KT 05/02 A2978 RMK A01 T00540022  RH  080%=      5-min Rain = 0
KOD1 101359Z 14010KT 05/02 A2978 RMK A01 T00540022  RH  080%=      5-min Rain = 0
KOD1 101400Z 14010KT 06/02 A2978 RMK A01 T00550023  RH  080%=      5-min Rain = 0
KOD1 101401Z 15010KT 06/02 A2978 RMK A01 T00550023  RH  080%=      5-min Rain = 0
KOD1 101402Z 15010KT 06/02 A2978 RMK A01 T00560023  RH  079%=      5-min Rain = 0
KOD1 101403Z 15011KT 06/02 A2978 RMK A01 T00560023  RH  079%=      5-min Rain = 0
KOD1 101404Z 14010KT 06/02 A2978 RMK A01 T00560023  RH  079%=      5-min Rain = 0
KOD1 101405Z 14011KT 06/02 A2978 RMK A01 T00570024  RH  079%=      5-min Rain = 0
KOD1 101406Z 14010KT 06/02 A2978 RMK A01 T00570024  RH  079%=      5-min Rain = 0
KOD1 101407Z 14009KT 06/02 A2978 RMK A01 T00580024  RH  079%=      5-min Rain = 0
KOD1 101408Z 14010KT 06/02 A2978 RMK A01 T00580024  RH  078%=      5-min Rain = 0
KOD1 101409Z 15009KT 06/02 A2978 RMK A01 T00580024  RH  078%=      5-min Rain = 0
KOD1 101410Z 15010KT 06/02 A2978 RMK A01 T00590024  RH  078%=      5-min Rain = 0
KOD1 101411Z 15010KT 06/02 A2978 RMK A01 T00600024  RH  078%=      5-min Rain = 0
KOD1 101412Z 15012KT 06/03 A2978 RMK A01 T00610025  RH  078%=      5-min Rain = 0
KOD1 101413Z 15012KT 06/03 A2978 RMK A01 T00620025  RH  077%=      5-min Rain = 0
KOD1 101414Z 15012KT 06/03 A2977 RMK A01 T00620025  RH  077%=      5-min Rain = 0
KOD1 101415Z 15012KT 06/03 A2977 RMK A01 T00630025  RH  077%=      5-min Rain = 0
KOD1 101416Z 15013KT 06/03 A2977 RMK A01 T00630025  RH  077%=      5-min Rain = 0
KOD1 101417Z 15012KT 06/03 A2977 RMK A01 T00640026  RH  076%=      5-min Rain = 0
KOD1 101418Z 15012KT 07/03 A2977 RMK A01 T00650026  RH  076%=      5-min Rain = 0
KOD1 101419Z 15012KT 07/03 A2977 RMK A01 T00660026  RH  076%=      5-min Rain = 0
KOD1 101420Z 15013KT 07/03 A2977 RMK A01 T00670027  RH  075%=      5-min Rain = 0
KOD1 101421Z 15013KT 07/03 A2977 RMK A01 T00680027  RH  075%=      5-min Rain = 0
KOD1 101422Z 15012KT 07/03 A2977 RMK A01 T00690027  RH  075%=      5-min Rain = 0
KOD1 101423Z 15012KT 07/03 A2977 RMK A01 T00690027  RH  074%=      5-min Rain = 0
KOD1 101424Z 15012KT 07/03 A2977 RMK A01 T00690027  RH  074%=      5-min Rain = 0
KOD1 101425Z 15011KT 07/03 A2977 RMK A01 T00700027  RH  074%=      5-min Rain = 0
KOD1 101426Z 15012KT 07/03 A2977 RMK A01 T00700027  RH  074%=      5-min Rain = 0
KOD1 101427Z 15012KT 07/03 A2977 RMK A01 T00710027  RH  074%=      5-min Rain = 0
KOD1 101428Z 15013KT 07/03 A2977 RMK A01 T00710027  RH  074%=      5-min Rain = 0
KOD1 101429Z 15012KT 07/03 A2977 RMK A01 T00710028  RH  074%=      5-min Rain = 0
KOD1 101430Z 15012KT 07/03 A2977 RMK A01 T00720028  RH  073%=      5-min Rain = 0
KOD1 101431Z 15012KT 07/03 A2978 RMK A01 T00720028  RH  073%=      5-min Rain = 0
KOD1 101432Z 15013KT 07/03 A2978 RMK A01 T00720028  RH  073%=      5-min Rain = 0
KOD1 101433Z 15013KT 07/03 A2978 RMK A01 T00730028  RH  073%=      5-min Rain = 0
KOD1 101434Z 15012KT 07/03 A2978 RMK A01 T00730028  RH  073%=      5-min Rain = 0
KOD1 101435Z 15012KT 07/03 A2978 RMK A01 T00740028  RH  073%=      5-min Rain = 0
KOD1 101436Z 15012KT 07/03 A2978 RMK A01 T00740028  RH  073%=      5-min Rain = 0
KOD1 101437Z 15011KT 07/03 A2978 RMK A01 T00740028  RH  073%=      5-min Rain = 0
KOD1 101438Z 15012KT 07/03 A2978 RMK A01 T00740028  RH  073%=      5-min Rain = 0
KOD1 101439Z 15013KT 07/03 A2978 RMK A01 T00740028  RH  073%=      5-min Rain = 0
KOD1 101440Z 15013KT 08/03 A2978 RMK A01 T00750029  RH  072%=      5-min Rain = 0
KOD1 101441Z 15012KT 08/03 A2978 RMK A01 T00750029  RH  072%=      5-min Rain = 0
KOD1 101442Z 15011KT 08/03 A2978 RMK A01 T00760029  RH  072%=      5-min Rain = 0
KOD1 101443Z 15012KT 08/03 A2978 RMK A01 T00760029  RH  072%=      5-min Rain = 0
KOD1 101444Z 15011KT 08/03 A2978 RMK A01 T00760029  RH  072%=      5-min Rain = 0
KOD1 101445Z 15011KT 08/03 A2978 RMK A01 T00770029  RH  072%=      5-min Rain = 0
KOD1 101446Z 15012KT 08/03 A2978 RMK A01 T00770029  RH  072%=      5-min Rain = 0
KOD1 101447Z 15013KT 08/03 A2977 RMK A01 T00780029  RH  071%=      5-min Rain = 0
KOD1 101448Z 15012KT 08/03 A2977 RMK A01 T00780030  RH  071%=      5-min Rain = 0
KOD1 101449Z 15012KT 08/03 A2977 RMK A01 T00790030  RH  071%=      5-min Rain = 0
KOD1 101450Z 15013KT 08/03 A2978 RMK A01 T00790029  RH  071%=      5-min Rain = 0
KOD1 101451Z 15014KT 08/03 A2978 RMK A01 T00790029  RH  071%=      5-min Rain = 0
KOD1 101452Z 15013KT 08/03 A2977 RMK A01 T00790029  RH  071%=      5-min Rain = 0
KOD1 101453Z 15013KT 08/03 A2977 RMK A01 T00790030  RH  071%=      5-min Rain = 0
KOD1 101454Z 15011KT 08/03 A2977 RMK A01 T00790030  RH  071%=      5-min Rain = 0
KOD1 101455Z 14013KT 08/03 A2977 RMK A01 T00800030  RH  071%=      5-min Rain = 0
KOD1 101456Z 15013KT 08/03 A2977 RMK A01 T00800029  RH  071%=      5-min Rain = 0
KOD1 101457Z 15011KT 08/03 A2977 RMK A01 T00790029  RH  070%=      5-min Rain = 0
KOD1 101458Z 14015KT 08/03 A2977 RMK A01 T00790029  RH  071%=      5-min Rain = 0
KOD1 101459Z 15012KT 08/03 A2977 RMK A01 T00780029  RH  071%=      5-min Rain = 0
KOD1 101500Z 15012KT 08/03 A2977 RMK A01 T00780029  RH  071%=      5-min Rain = 0
KOD1 101501Z 14013KT 08/03 A2977 RMK A01 T00780029  RH  071%=      5-min Rain = 0
KOD1 101502Z 15014KT 08/03 A2977 RMK A01 T00790030  RH  071%=      5-min Rain = 0
KOD1 101503Z 15013KT 08/03 A2977 RMK A01 T00800030  RH  071%=      5-min Rain = 0
KOD1 101504Z 14015KT 08/03 A2977 RMK A01 T00810030  RH  070%=      5-min Rain = 0
KOD1 101505Z 14015KT 08/03 A2977 RMK A01 T00810030  RH  070%=      5-min Rain = 0
KOD1 101506Z 14015KT 08/03 A2977 RMK A01 T00820030  RH  070%=      5-min Rain = 0
KOD1 101507Z 14015KT 08/03 A2977 RMK A01 T00820030  RH  070%=      5-min Rain = 0
KOD1 101508Z 15015KT 08/03 A2977 RMK A01 T00820030  RH  069%=      5-min Rain = 0
KOD1 101509Z 14013KT 08/03 A2977 RMK A01 T00830030  RH  069%=      5-min Rain = 0
KOD1 101510Z 15015KT 08/03 A2977 RMK A01 T00830030  RH  069%=      5-min Rain = 0
KOD1 101511Z 15014KT 08/03 A2977 RMK A01 T00830029  RH  069%=      5-min Rain = 0
KOD1 101512Z 14015KT 08/03 A2977 RMK A01 T00830029  RH  069%=      5-min Rain = 0
KOD1 101513Z 14015KT 08/03 A2977 RMK A01 T00830029  RH  069%=      5-min Rain = 0
KOD1 101514Z 15015KT 08/03 A2977 RMK A01 T00830029  RH  069%=      5-min Rain = 0
KOD1 101515Z 14015KT 08/03 A2977 RMK A01 T00830029  RH  069%=      5-min Rain = 0
KOD1 101516Z 14017KT 08/03 A2977 RMK A01 T00830029  RH  069%=      5-min Rain = 0
KOD1 101517Z 14014KT 08/03 A2977 RMK A01 T00830030  RH  069%=      5-min Rain = 0
KOD1 101518Z 15014KT 08/03 A2977 RMK A01 T00840030  RH  069%=      5-min Rain = 0
KOD1 101519Z 14013KT 09/03 A2977 RMK A01 T00850030  RH  068%=      5-min Rain = 0
KOD1 101520Z 15013G18KT 09/03 A2977 RMK A01 T00860031  RH  068%=      5-min Rain = 0
KOD1 101521Z 14015KT 09/03 A2977 RMK A01 T00860030  RH  068%=      5-min Rain = 0
KOD1 101522Z 14016KT 09/03 A2977 RMK A01 T00860030  RH  068%=      5-min Rain = 0
KOD1 101523Z 14015KT 09/03 A2977 RMK A01 T00860030  RH  068%=      5-min Rain = 0
KOD1 101524Z 15017KT 09/03 A2977 RMK A01 T00860030  RH  068%=      5-min Rain = 0
KOD1 101525Z 15012KT 09/03 A2977 RMK A01 T00860031  RH  068%=      5-min Rain = 0
KOD1 101526Z 15015KT 09/03 A2977 RMK A01 T00870031  RH  068%=      5-min Rain = 0
KOD1 101527Z 14014KT 09/03 A2977 RMK A01 T00870031  RH  068%=      5-min Rain = 0
KOD1 101528Z 15015KT 09/03 A2977 RMK A01 T00880031  RH  067%=      5-min Rain = 0
KOD1 101529Z 15014KT 09/03 A2977 RMK A01 T00880031  RH  068%=      5-min Rain = 0
KOD1 101530Z 14015KT 09/03 A2977 RMK A01 T00890031  RH  067%=      5-min Rain = 0
KOD1 101531Z 14013KT 09/03 A2977 RMK A01 T00890031  RH  067%=      5-min Rain = 0
KOD1 101532Z 14015KT 09/03 A2976 RMK A01 T00900031  RH  067%=      5-min Rain = 0
KOD1 101533Z 15014KT 09/03 A2976 RMK A01 T00900032  RH  067%=      5-min Rain = 0
KOD1 101534Z 15014KT 09/03 A2976 RMK A01 T00910031  RH  066%=      5-min Rain = 0
KOD1 101535Z 15014KT 09/03 A2976 RMK A01 T00920032  RH  066%=      5-min Rain = 0
KOD1 101536Z 14012KT 09/03 A2976 RMK A01 T00930032  RH  066%=      5-min Rain = 0
KOD1 101537Z 15015KT 09/03 A2976 RMK A01 T00930032  RH  066%=      5-min Rain = 0
KOD1 101538Z 15017KT 09/03 A2976 RMK A01 T00940032  RH  065%=      5-min Rain = 0
KOD1 101539Z 15015KT 10/03 A2976 RMK A01 T00950032  RH  065%=      5-min Rain = 0
KOD1 101540Z 14014KT 10/03 A2976 RMK A01 T00950032  RH  065%=      5-min Rain = 0
KOD1 101541Z 15014KT 10/03 A2976 RMK A01 T00960032  RH  065%=      5-min Rain = 0
KOD1 101542Z 14014KT 10/03 A2976 RMK A01 T00960032  RH  064%=      5-min Rain = 0
KOD1 101543Z 15014KT 10/03 A2977 RMK A01 T00960032  RH  064%=      5-min Rain = 0
KOD1 101544Z 15014KT 10/03 A2977 RMK A01 T00970032  RH  064%=      5-min Rain = 0
KOD1 101545Z 15015KT 10/03 A2977 RMK A01 T00970032  RH  064%=      5-min Rain = 0
KOD1 101546Z 15014KT 10/03 A2977 RMK A01 T00970032  RH  064%=      5-min Rain = 0
KOD1 101547Z 15013KT 10/03 A2977 RMK A01 T00980033  RH  064%=      5-min Rain = 0
KOD1 101548Z 15014KT 10/03 A2977 RMK A01 T00990033  RH  064%=      5-min Rain = 0
KOD1 101549Z 16014KT 10/03 A2977 RMK A01 T00990033  RH  063%=      5-min Rain = 0
KOD1 101550Z 16015KT 10/03 A2977 RMK A01 T00990033  RH  063%=      5-min Rain = 0
KOD1 101551Z 15014KT 10/03 A2977 RMK A01 T00990033  RH  063%=      5-min Rain = 0
KOD1 101552Z 15013KT 10/03 A2977 RMK A01 T00990033  RH  064%=      5-min Rain = 0
KOD1 101553Z 15015KT 10/03 A2977 RMK A01 T00990032  RH  063%=      5-min Rain = 0
KOD1 101554Z 15017KT 10/03 A2977 RMK A01 T00980032  RH  063%=      5-min Rain = 0
KOD1 101555Z 15014KT 10/03 A2977 RMK A01 T00980032  RH  064%=      5-min Rain = 0
KOD1 101556Z 15012KT 10/03 A2977 RMK A01 T00980033  RH  064%=      5-min Rain = 0
KOD1 101557Z 15012KT 10/03 A2977 RMK A01 T00980033  RH  064%=      5-min Rain = 0
KOD1 101558Z 15015KT 10/03 A2977 RMK A01 T00990032  RH  063%=      5-min Rain = 0
KOD1 101559Z 15014KT 10/03 A2977 RMK A01 T00980032  RH  063%=      5-min Rain = 0
KOD1 101600Z 15013KT 10/03 A2977 RMK A01 T00980032  RH  064%=      5-min Rain = 0
KOD1 101601Z 15013KT 10/03 A2977 RMK A01 T00980032  RH  064%=      5-min Rain = 0
KOD1 101602Z 15012KT 10/03 A2977 RMK A01 T00970032  RH  064%=      5-min Rain = 0
KOD1 101603Z 15013KT 10/03 A2977 RMK A01 T00980032  RH  064%=      5-min Rain = 0
KOD1 101604Z 14015KT 10/03 A2977 RMK A01 T00970032  RH  064%=      5-min Rain = 0
KOD1 101605Z 15015KT 10/03 A2977 RMK A01 T00970032  RH  064%=      5-min Rain = 0
KOD1 101606Z 15015KT 10/03 A2977 RMK A01 T00970032  RH  064%=      5-min Rain = 0
KOD1 101607Z 15014KT 10/03 A2977 RMK A01 T00970032  RH  064%=      5-min Rain = 0
KOD1 101608Z 15015KT 10/03 A2977 RMK A01 T00970032  RH  064%=      5-min Rain = 0
KOD1 101609Z 15015KT 10/03 A2977 RMK A01 T00970032  RH  064%=      5-min Rain = 0
KOD1 101610Z 15015KT 10/03 A2977 RMK A01 T00980032  RH  064%=      5-min Rain = 0
KOD1 101611Z 15014KT 10/03 A2977 RMK A01 T00980032  RH  064%=      5-min Rain = 0
KOD1 101612Z 15014KT 10/03 A2977 RMK A01 T00990033  RH  064%=      5-min Rain = 0
KOD1 101613Z 15015KT 10/03 A2977 RMK A01 T00990032  RH  063%=      5-min Rain = 0
KOD1 101614Z 15013KT 10/03 A2976 RMK A01 T01000033  RH  063%=      5-min Rain = 0
KOD1 101615Z 15014KT 10/03 A2976 RMK A01 T01010033  RH  063%=      5-min Rain = 0
KOD1 101616Z 15014KT 10/03 A2976 RMK A01 T01010034  RH  063%=      5-min Rain = 0
KOD1 101617Z 16016KT 10/03 A2976 RMK A01 T01020034  RH  062%=      5-min Rain = 0
KOD1 101618Z 15015KT 10/03 A2976 RMK A01 T01030034  RH  062%=      5-min Rain = 0
KOD1 101619Z 15015KT 10/03 A2976 RMK A01 T01030034  RH  062%=      5-min Rain = 0
KOD1 101620Z 15014KT 10/04 A2976 RMK A01 T01040035  RH  062%=      5-min Rain = 0
KOD1 101621Z 15016KT 11/04 A2976 RMK A01 T01060035  RH  061%=      5-min Rain = 0
KOD1 101622Z 14014KT 11/03 A2976 RMK A01 T01070034  RH  061%=      5-min Rain = 0
KOD1 101623Z 15012KT 11/04 A2976 RMK A01 T01080035  RH  061%=      5-min Rain = 0
KOD1 101624Z 15014KT 11/04 A2976 RMK A01 T01090036  RH  061%=      5-min Rain = 0
KOD1 101625Z 15015KT 11/03 A2976 RMK A01 T01090034  RH  060%=      5-min Rain = 0
KOD1 101626Z 15013KT 11/03 A2976 RMK A01 T01090034  RH  060%=      5-min Rain = 0
KOD1 101627Z 14012KT 11/04 A2977 RMK A01 T01080035  RH  060%=      5-min Rain = 0
KOD1 101628Z 15012KT 11/04 A2977 RMK A01 T01090035  RH  060%=      5-min Rain = 0
KOD1 101629Z 16013KT 11/04 A2977 RMK A01 T01090036  RH  061%=      5-min Rain = 0
KOD1 101630Z 15013G18KT 11/04 A2977 RMK A01 T01090036  RH  060%=      5-min Rain = 0
KOD1 101631Z 16014KT 11/03 A2977 RMK A01 T01090034  RH  060%=      5-min Rain = 0
KOD1 101632Z 15014KT 11/04 A2977 RMK A01 T01080035  RH  060%=      5-min Rain = 0
KOD1 101633Z 16015KT 11/04 A2977 RMK A01 T01080035  RH  061%=      5-min Rain = 0
KOD1 101634Z 15012KT 11/04 A2977 RMK A01 T01070036  RH  061%=      5-min Rain = 0
KOD1 101635Z 16012KT 11/04 A2977 RMK A01 T01080036  RH  061%=      5-min Rain = 0
KOD1 101636Z 15012KT 11/04 A2977 RMK A01 T01080036  RH  061%=      5-min Rain = 0
KOD1 101637Z 15014KT 11/04 A2977 RMK A01 T01080035  RH  061%=      5-min Rain = 0
KOD1 101638Z 16015KT 11/03 A2977 RMK A01 T01070034  RH  061%=      5-min Rain = 0
KOD1 101639Z 15013KT 11/04 A2977 RMK A01 T01070035  RH  061%=      5-min Rain = 0
KOD1 101640Z 16012KT 11/04 A2977 RMK A01 T01070035  RH  061%=      5-min Rain = 0
KOD1 101641Z 15012KT 11/04 A2977 RMK A01 T01070035  RH  061%=      5-min Rain = 0
KOD1 101642Z 15011KT 11/04 A2977 RMK A01 T01070035  RH  061%=      5-min Rain = 0
KOD1 101643Z 14013KT 11/04 A2976 RMK A01 T01070035  RH  061%=      5-min Rain = 0
KOD1 101644Z 15012KT 11/04 A2976 RMK A01 T01070035  RH  061%=      5-min Rain = 0
KOD1 101645Z 14012KT 11/04 A2976 RMK A01 T01080036  RH  061%=      5-min Rain = 0
KOD1 101646Z 15014KT 11/04 A2976 RMK A01 T01080035  RH  061%=      5-min Rain = 0
KOD1 101647Z 15014KT 11/04 A2976 RMK A01 T01070035  RH  061%=      5-min Rain = 0
KOD1 101648Z 15013KT 11/04 A2976 RMK A01 T01080036  RH  061%=      5-min Rain = 0
KOD1 101649Z 14010KT 11/04 A2976 RMK A01 T01080036  RH  061%=      5-min Rain = 0
KOD1 101650Z 14013KT 11/04 A2976 RMK A01 T01090035  RH  060%=      5-min Rain = 0
KOD1 101651Z 14012KT 11/04 A2976 RMK A01 T01090035  RH  060%=      5-min Rain = 0
KOD1 101652Z 15012KT 11/04 A2976 RMK A01 T01090036  RH  060%=      5-min Rain = 0
KOD1 101653Z 15013KT 11/04 A2975 RMK A01 T01100035  RH  060%=      5-min Rain = 0
KOD1 101654Z 14009KT 11/04 A2975 RMK A01 T01100036  RH  060%=      5-min Rain = 0
KOD1 101655Z 14010KT 11/04 A2975 RMK A01 T01120037  RH  060%=      5-min Rain = 0
KOD1 101656Z 13010KT 11/04 A2975 RMK A01 T01130037  RH  059%=      5-min Rain = 0
KOD1 101657Z 14012KT 11/04 A2975 RMK A01 T01130037  RH  059%=      5-min Rain = 0
KOD1 101658Z 15013KT 11/04 A2975 RMK A01 T01130036  RH  059%=      5-min Rain = 0
KOD1 101659Z 15011KT 11/04 A2975 RMK A01 T01140036  RH  059%=      5-min Rain = 0
KOD1 101700Z 14009KT 11/04 A2975 RMK A01 T01140037  RH  059%=      5-min Rain = 0
KOD1 101701Z 14011KT 12/04 A2975 RMK A01 T01150036  RH  059%=      5-min Rain = 0
KOD1 101702Z 14012KT 12/04 A2975 RMK A01 T01150036  RH  058%=      5-min Rain = 0
KOD1 101703Z 15011KT 12/04 A2975 RMK A01 T01150036  RH  058%=      5-min Rain = 0
KOD1 101704Z 14011KT 12/04 A2975 RMK A01 T01160037  RH  058%=      5-min Rain = 0
KOD1 101705Z 14010KT 12/04 A2975 RMK A01 T01160037  RH  058%=      5-min Rain = 0
KOD1 101706Z 14012KT 12/04 A2975 RMK A01 T01170037  RH  058%=      5-min Rain = 0
KOD1 101707Z 15012KT 12/04 A2975 RMK A01 T01170036  RH  058%=      5-min Rain = 0
KOD1 101708Z 15011KT 12/04 A2975 RMK A01 T01170037  RH  058%=      5-min Rain = 0
KOD1 101709Z 15011KT 12/04 A2975 RMK A01 T01170037  RH  058%=      5-min Rain = 0
KOD1 101710Z 15012KT 12/04 A2975 RMK A01 T01170037  RH  058%=      5-min Rain = 0
KOD1 101711Z 15013KT 12/04 A2975 RMK A01 T01180037  RH  058%=      5-min Rain = 0
KOD1 101712Z 15011KT 12/04 A2975 RMK A01 T01190038  RH  057%=      5-min Rain = 0
KOD1 101713Z 15010G15KT 12/04 A2975 RMK A01 T01210038  RH  057%=      5-min Rain = 0
KOD1 101714Z 15011KT 12/04 A2975 RMK A01 T01210037  RH  056%=      5-min Rain = 0
KOD1 101715Z 16011KT 12/04 A2975 RMK A01 T01210036  RH  056%=      5-min Rain = 0
KOD1 101716Z 16010KT 12/04 A2975 RMK A01 T01210037  RH  056%=      5-min Rain = 0
KOD1 101717Z 16012KT 12/04 A2976 RMK A01 T01220037  RH  056%=      5-min Rain = 0
KOD1 101718Z 17016KT 12/04 A2976 RMK A01 T01230035  RH  055%=      5-min Rain = 0
KOD1 101719Z 16014KT 12/04 A2976 RMK A01 T01230035  RH  055%=      5-min Rain = 0
KOD1 101720Z 16011KT 13/04 A2975 RMK A01 T01250036  RH  055%=      5-min Rain = 0
KOD1 101721Z 16011KT 13/04 A2975 RMK A01 T01270038  RH  055%=      5-min Rain = 0
KOD1 101722Z 15012KT 13/04 A2975 RMK A01 T01300039  RH  054%=      5-min Rain = 0
KOD1 101723Z 14014KT 13/04 A2975 RMK A01 T01320036  RH  052%=      5-min Rain = 0
KOD1 101724Z 15012KT 13/04 A2975 RMK A01 T01320037  RH  052%=      5-min Rain = 0
KOD1 101725Z 16013KT 13/04 A2975 RMK A01 T01340037  RH  052%=      5-min Rain = 0
KOD1 101726Z 16013KT 13/04 A2975 RMK A01 T01340036  RH  052%=      5-min Rain = 0
KOD1 101727Z 15014KT 14/04 A2975 RMK A01 T01350036  RH  051%=      5-min Rain = 0
KOD1 101728Z 16014KT 14/04 A2975 RMK A01 T01360037  RH  051%=      5-min Rain = 0
KOD1 101729Z 16016KT 14/04 A2975 RMK A01 T01370035  RH  050%=      5-min Rain = 0
KOD1 101730Z 16014KT 14/04 A2974 RMK A01 T01380037  RH  050%=      5-min Rain = 0
KOD1 101731Z 16012KT 14/04 A2974 RMK A01 T01400037  RH  050%=      5-min Rain = 0
KOD1 101732Z 15015KT 14/04 A2974 RMK A01 T01400035  RH  049%=      5-min Rain = 0
KOD1 101733Z 16015KT 14/04 A2974 RMK A01 T01410036  RH  049%=      5-min Rain = 0
KOD1 101734Z 16014KT 14/03 A2974 RMK A01 T01400034  RH  049%=      5-min Rain = 0
KOD1 101735Z 16016KT 14/03 A2974 RMK A01 T01390034  RH  049%=      5-min Rain = 0
KOD1 101736Z 16016KT 14/03 A2974 RMK A01 T01390033  RH  049%=      5-min Rain = 0
KOD1 101737Z 17016KT 14/03 A2974 RMK A01 T01390033  RH  049%=      5-min Rain = 0
KOD1 101738Z 16017KT 14/03 A2974 RMK A01 T01380032  RH  049%=      5-min Rain = 0
KOD1 101739Z 17018KT 14/03 A2974 RMK A01 T01370032  RH  049%=      5-min Rain = 0
KOD1 101740Z 18014KT 14/03 A2974 RMK A01 T01370033  RH  049%=      5-min Rain = 0
KOD1 101741Z 17018G23KT 14/03 A2974 RMK A01 T01380033  RH  049%=      5-min Rain = 0
KOD1 101742Z 17016KT 14/03 A2974 RMK A01 T01390034  RH  049%=      5-min Rain = 0
KOD1 101743Z 17013G19KT 14/04 A2974 RMK A01 T01400035  RH  049%=      5-min Rain = 0
KOD1 101744Z 17015KT 14/03 A2974 RMK A01 T01410033  RH  048%=      5-min Rain = 0
KOD1 101745Z 17015KT 14/04 A2974 RMK A01 T01410035  RH  049%=      5-min Rain = 0
KOD1 101746Z 16014KT 14/03 A2974 RMK A01 T01410033  RH  048%=      5-min Rain = 0
KOD1 101747Z 17014KT 14/03 A2974 RMK A01 T01410033  RH  048%=      5-min Rain = 0
KOD1 101748Z 17015KT 14/03 A2974 RMK A01 T01400034  RH  049%=      5-min Rain = 0
KOD1 101749Z 16016KT 14/03 A2973 RMK A01 T01400033  RH  049%=      5-min Rain = 0
KOD1 101750Z 16015KT 14/03 A2973 RMK A01 T01380032  RH  049%=      5-min Rain = 0
KOD1 101751Z 16014KT 14/03 A2973 RMK A01 T01380033  RH  049%=      5-min Rain = 0
KOD1 101752Z 16013KT 14/03 A2974 RMK A01 T01380034  RH  049%=      5-min Rain = 0
KOD1 101753Z 16015KT 14/03 A2974 RMK A01 T01390033  RH  049%=      5-min Rain = 0
KOD1 101754Z 16015KT 14/03 A2973 RMK A01 T01380032  RH  049%=      5-min Rain = 0
KOD1 101755Z 16014KT 14/03 A2973 RMK A01 T01380034  RH  049%=      5-min Rain = 0
KOD1 101756Z 16015KT 14/03 A2973 RMK A01 T01390034  RH  049%=      5-min Rain = 0
KOD1 101757Z 17014KT 14/03 A2973 RMK A01 T01400034  RH  049%=      5-min Rain = 0
KOD1 101758Z 15017KT 14/03 A2973 RMK A01 T01410034  RH  048%=      5-min Rain = 0
KOD1 101759Z 15016KT 14/03 A2973 RMK A01 T01400032  RH  048%=      5-min Rain = 0
KOD1 101800Z 15016KT 14/03 A2973 RMK A01 T01400033  RH  049%=      5-min Rain = 0
KOD1 101801Z 15018KT 14/03 A2972 RMK A01 T01410034  RH  048%=      5-min Rain = 0
KOD1 101802Z 15016KT 14/03 A2972 RMK A01 T01420033  RH  048%=      5-min Rain = 0
KOD1 101803Z 15019KT 14/03 A2972 RMK A01 T01420032  RH  048%=      5-min Rain = 0
KOD1 101804Z 15016KT 14/03 A2972 RMK A01 T01420033  RH  048%=      5-min Rain = 0
KOD1 101805Z 16014KT 14/03 A2972 RMK A01 T01410033  RH  048%=      5-min Rain = 0
KOD1 101806Z 16015KT 14/03 A2972 RMK A01 T01410033  RH  048%=      5-min Rain = 0
KOD1 101807Z 15014KT 14/03 A2971 RMK A01 T01400033  RH  048%=      5-min Rain = 0
KOD1 101808Z 15017KT 14/03 A2971 RMK A01 T01400033  RH  048%=      5-min Rain = 0
KOD1 101809Z 16015KT 14/03 A2971 RMK A01 T01400033  RH  048%=      5-min Rain = 0
KOD1 101810Z 17016KT 14/03 A2971 RMK A01 T01410034  RH  048%=      5-min Rain = 0
KOD1 101811Z 17015KT 14/03 A2971 RMK A01 T01400034  RH  049%=      5-min Rain = 0
KOD1 101812Z 15015KT 14/03 A2971 RMK A01 T01410034  RH  048%=      5-min Rain = 0
KOD1 101813Z 15014KT 14/04 A2971 RMK A01 T01420035  RH  048%=      5-min Rain = 0
KOD1 101814Z 16014KT 14/03 A2971 RMK A01 T01430034  RH  048%=      5-min Rain = 0
KOD1 101815Z 17015KT 14/04 A297 RMK A01 T01430035  RH  048%=      5-min Rain = 0
KOD1 101816Z 16014KT 14/03 A297 RMK A01 T01430034  RH  048%=      5-min Rain = 0
KOD1 101817Z 15016KT 14/03 A297 RMK A01 T01440034  RH  048%=      5-min Rain = 0
KOD1 101818Z 15016G21KT 14/03 A297 RMK A01 T01440034  RH  048%=      5-min Rain = 0
KOD1 101819Z 16017KT 14/03 A2969 RMK A01 T01440034  RH  048%=      5-min Rain = 0
KOD1 101820Z 15019KT 14/03 A2969 RMK A01 T01440033  RH  047%=      5-min Rain = 0
KOD1 101821Z 15017KT 15/04 A2969 RMK A01 T01450035  RH  047%=      5-min Rain = 0
KOD1 101822Z 15017KT 15/03 A2969 RMK A01 T01450033  RH  047%=      5-min Rain = 0
KOD1 101823Z 16018KT 15/03 A2969 RMK A01 T01450034  RH  047%=      5-min Rain = 0
KOD1 101824Z 16019KT 15/03 A2969 RMK A01 T01450034  RH  047%=      5-min Rain = 0
KOD1 101825Z 16017KT 15/04 A2969 RMK A01 T01460035  RH  047%=      5-min Rain = 0
KOD1 101826Z 16016KT 15/04 A2969 RMK A01 T01460035  RH  047%=      5-min Rain = 0
KOD1 101827Z 16017KT 15/04 A2969 RMK A01 T01480035  RH  047%=      5-min Rain = 0
KOD1 101828Z 17017KT 15/04 A2969 RMK A01 T01490035  RH  047%=      5-min Rain = 0
KOD1 101829Z 17017KT 15/04 A2969 RMK A01 T01500036  RH  046%=      5-min Rain = 0
KOD1 101830Z 16018KT 15/04 A2969 RMK A01 T01510035  RH  046%=      5-min Rain = 0
KOD1 101831Z 16020KT 15/03 A2969 RMK A01 T01500034  RH  046%=      5-min Rain = 0
KOD1 101832Z 16018KT 15/04 A2969 RMK A01 T01490035  RH  046%=      5-min Rain = 0
KOD1 101833Z 17019KT 15/04 A2968 RMK A01 T01490036  RH  047%=      5-min Rain = 0
KOD1 101834Z 17018KT 15/04 A2968 RMK A01 T01490036  RH  047%=      5-min Rain = 0
KOD1 101835Z 16018KT 15/04 A2968 RMK A01 T01510036  RH  046%=      5-min Rain = 0
KOD1 101836Z 16018KT 15/04 A2968 RMK A01 T01510035  RH  046%=      5-min Rain = 0
KOD1 101837Z 16015KT 15/04 A2968 RMK A01 T01520037  RH  046%=      5-min Rain = 0
KOD1 101838Z 15017KT 16/04 A2968 RMK A01 T01550037  RH  045%=      5-min Rain = 0
KOD1 101839Z 16017KT 16/04 A2968 RMK A01 T01550036  RH  045%=      5-min Rain = 0
KOD1 101840Z 16017KT 16/04 A2968 RMK A01 T01550037  RH  045%=      5-min Rain = 0
KOD1 101841Z 16016KT 16/04 A2968 RMK A01 T01560037  RH  045%=      5-min Rain = 0
KOD1 101842Z 16020KT 16/04 A2968 RMK A01 T01570036  RH  044%=      5-min Rain = 0
KOD1 101843Z 17018KT 16/04 A2967 RMK A01 T01570036  RH  044%=      5-min Rain = 0
KOD1 101844Z 16014KT 16/04 A2967 RMK A01 T01570035  RH  044%=      5-min Rain = 0
KOD1 101845Z 16018KT 16/04 A2967 RMK A01 T01570037  RH  045%=      5-min Rain = 0
KOD1 101846Z 15019KT 16/04 A2967 RMK A01 T01570035  RH  044%=      5-min Rain = 0
KOD1 101847Z 16018G23KT 16/04 A2967 RMK A01 T01550035  RH  045%=      5-min Rain = 0
KOD1 101848Z 16013KT 15/04 A2967 RMK A01 T01540036  RH  045%=      5-min Rain = 0
KOD1 101849Z 17017KT 15/04 A2967 RMK A01 T01530036  RH  045%=      5-min Rain = 0
KOD1 101850Z 17018KT 15/04 A2967 RMK A01 T01530037  RH  046%=      5-min Rain = 0
KOD1 101851Z 16015KT 15/04 A2967 RMK A01 T01520037  RH  046%=      5-min Rain = 0
KOD1 101852Z 16016KT 15/04 A2967 RMK A01 T01540038  RH  046%=      5-min Rain = 0
KOD1 101853Z 16017KT 16/04 A2967 RMK A01 T01550036  RH  045%=      5-min Rain = 0
KOD1 101854Z 16016KT 16/04 A2966 RMK A01 T01560038  RH  045%=      5-min Rain = 0
KOD1 101855Z 16015KT 16/04 A2966 RMK A01 T01570037  RH  045%=      5-min Rain = 0
KOD1 101856Z 16017KT 16/04 A2966 RMK A01 T01580036  RH  044%=      5-min Rain = 0
KOD1 101857Z 17016KT 16/04 A2966 RMK A01 T01570036  RH  045%=      5-min Rain = 0
KOD1 101858Z 16014KT 16/04 A2966 RMK A01 T01570038  RH  045%=      5-min Rain = 0
KOD1 101859Z 15015KT 16/04 A2966 RMK A01 T01590038  RH  044%=      5-min Rain = 0
KOD1 101900Z 15015KT 16/04 A2966 RMK A01 T01590037  RH  044%=      5-min Rain = 0
KOD1 101901Z 16014KT 16/04 A2966 RMK A01 T01610039  RH  044%=      5-min Rain = 0
KOD1 101902Z 16016KT 16/04 A2966 RMK A01 T01630038  RH  043%=      5-min Rain = 0
KOD1 101903Z 15015KT 16/04 A2966 RMK A01 T01640037  RH  043%=      5-min Rain = 0
KOD1 101904Z 15014KT 16/04 A2966 RMK A01 T01640036  RH  042%=      5-min Rain = 0
KOD1 101905Z 15015KT 16/04 A2966 RMK A01 T01640038  RH  043%=      5-min Rain = 0
KOD1 101906Z 17015KT 17/04 A2966 RMK A01 T01660038  RH  042%=      5-min Rain = 0
KOD1 101907Z 17014KT 17/04 A2966 RMK A01 T01660038  RH  042%=      5-min Rain = 0
KOD1 101908Z 15013G18KT 17/04 A2966 RMK A01 T01690040  RH  042%=      5-min Rain = 0
KOD1 101909Z 15016KT 17/04 A2966 RMK A01 T01710037  RH  041%=      5-min Rain = 0
KOD1 101910Z 17015KT 17/04 A2966 RMK A01 T01710037  RH  041%=      5-min Rain = 0
KOD1 101911Z 16013KT 17/04 A2966 RMK A01 T01700036  RH  041%=      5-min Rain = 0
KOD1 101912Z 17011KT 17/04 A2965 RMK A01 T01670036  RH  042%=      5-min Rain = 0
KOD1 101913Z 16016KT 17/04 A2965 RMK A01 T01660037  RH  042%=      5-min Rain = 0
KOD1 101914Z 16015KT 16/04 A2965 RMK A01 T01630036  RH  043%=      5-min Rain = 0
KOD1 101915Z 16014KT 16/04 A2965 RMK A01 T01620036  RH  043%=      5-min Rain = 0
KOD1 101916Z 15016KT 16/04 A2964 RMK A01 T01610036  RH  043%=      5-min Rain = 0
KOD1 101917Z 15015KT 16/04 A2964 RMK A01 T01610036  RH  043%=      5-min Rain = 0
KOD1 101918Z 15016KT 16/04 A2964 RMK A01 T01610036  RH  043%=      5-min Rain = 0
KOD1 101919Z 16016KT 16/04 A2964 RMK A01 T01610036  RH  043%=      5-min Rain = 0
KOD1 101920Z 16015KT 16/04 A2964 RMK A01 T01610037  RH  043%=      5-min Rain = 0
KOD1 101921Z 16014KT 16/04 A2964 RMK A01 T01620038  RH  044%=      5-min Rain = 0
KOD1 101922Z 16017KT 16/04 A2964 RMK A01 T01630038  RH  043%=      5-min Rain = 0
KOD1 101923Z 16017KT 17/04 A2963 RMK A01 T01650038  RH  043%=      5-min Rain = 0
KOD1 101924Z 16018KT 17/04 A2964 RMK A01 T01680038  RH  042%=      5-min Rain = 0
KOD1 101925Z 16016KT 17/04 A2963 RMK A01 T01690037  RH  041%=      5-min Rain = 0
KOD1 101926Z 16016KT 17/04 A2963 RMK A01 T01710038  RH  041%=      5-min Rain = 0
KOD1 101927Z 17016KT 17/04 A2963 RMK A01 T01730038  RH  041%=      5-min Rain = 0
KOD1 101928Z 16017KT 17/04 A2963 RMK A01 T01740038  RH  040%=      5-min Rain = 0
KOD1 101929Z 17017KT 17/04 A2963 RMK A01 T01740037  RH  040%=      5-min Rain = 0
KOD1 101930Z 16016KT 18/04 A2963 RMK A01 T01760039  RH  040%=      5-min Rain = 0
KOD1 101931Z 16018KT 18/04 A2962 RMK A01 T01790038  RH  039%=      5-min Rain = 0
KOD1 101932Z 15020KT 18/04 A2962 RMK A01 T01790036  RH  039%=      5-min Rain = 0
KOD1 101933Z 16020KT 18/04 A2962 RMK A01 T01790037  RH  039%=      5-min Rain = 0
KOD1 101934Z 16018KT 18/04 A2962 RMK A01 T01800038  RH  039%=      5-min Rain = 0
KOD1 101935Z 16018KT 18/04 A2962 RMK A01 T01810036  RH  038%=      5-min Rain = 0
KOD1 101936Z 17020KT 18/04 A2962 RMK A01 T01810037  RH  038%=      5-min Rain = 0
KOD1 101937Z 17018G24KT 18/04 A2962 RMK A01 T01810037  RH  039%=      5-min Rain = 0
KOD1 101938Z 16018KT 18/04 A2961 RMK A01 T01820037  RH  038%=      5-min Rain = 0
KOD1 101939Z 16021KT 18/04 A2961 RMK A01 T01820036  RH  038%=      5-min Rain = 0
KOD1 101940Z 16018KT 18/04 A2961 RMK A01 T01820036  RH  038%=      5-min Rain = 0
KOD1 101941Z 17018KT 18/04 A2961 RMK A01 T01840038  RH  038%=      5-min Rain = 0
KOD1 101942Z 17019KT 18/04 A2961 RMK A01 T01840037  RH  038%=      5-min Rain = 0
KOD1 101943Z 16017KT 19/04 A2961 RMK A01 T01850037  RH  038%=      5-min Rain = 0
KOD1 101944Z 17017KT 19/04 A2961 RMK A01 T01850038  RH  037%=      5-min Rain = 0
KOD1 101945Z 17019KT 19/04 A2961 RMK A01 T01850036  RH  037%=      5-min Rain = 0
KOD1 101946Z 17019KT 19/04 A2961 RMK A01 T01850037  RH  037%=      5-min Rain = 0
KOD1 101947Z 17021KT 19/04 A296 RMK A01 T01850036  RH  037%=      5-min Rain = 0
KOD1 101948Z 17019KT 19/04 A296 RMK A01 T01850037  RH  037%=      5-min Rain = 0
KOD1 101949Z 16017KT 19/04 A296 RMK A01 T01850036  RH  037%=      5-min Rain = 0
KOD1 101950Z 15018KT 19/04 A296 RMK A01 T01850036  RH  037%=      5-min Rain = 0
KOD1 101951Z 16018KT 19/04 A296 RMK A01 T01850036  RH  037%=      5-min Rain = 0
KOD1 101952Z 16021KT 19/04 A2959 RMK A01 T01850036  RH  037%=      5-min Rain = 0
KOD1 101953Z 16018KT 19/04 A296 RMK A01 T01850037  RH  037%=      5-min Rain = 0
KOD1 101954Z 16018KT 19/04 A2959 RMK A01 T01860037  RH  037%=      5-min Rain = 0
KOD1 101955Z 16017KT 19/04 A2959 RMK A01 T01860037  RH  037%=      5-min Rain = 0
KOD1 101956Z 16018G23KT 19/04 A2959 RMK A01 T01870036  RH  037%=      5-min Rain = 0
KOD1 101957Z 15019KT 19/04 A2959 RMK A01 T01860035  RH  037%=      5-min Rain = 0
KOD1 101958Z 15015G20KT 19/04 A2959 RMK A01 T01880037  RH  037%=      5-min Rain = 0
KOD1 101959Z 16016KT 19/04 A2959 RMK A01 T01890036  RH  036%=      5-min Rain = 0
KOD1 102000Z 15018KT 19/04 A2959 RMK A01 T01900036  RH  036%=      5-min Rain = 0
KOD1 102001Z 15016G21KT 19/04 A2959 RMK A01 T01910037  RH  036%=      5-min Rain = 0
KOD1 102002Z 14016G21KT 19/04 A2959 RMK A01 T01910035  RH  036%=      5-min Rain = 0
KOD1 102003Z 15016KT 19/04 A2959 RMK A01 T01910036  RH  036%=      5-min Rain = 0
KOD1 102004Z 15021KT 19/04 A2959 RMK A01 T01910036  RH  036%=      5-min Rain = 0
KOD1 102005Z 15020KT 19/04 A2959 RMK A01 T01910036  RH  036%=      5-min Rain = 0
KOD1 102006Z 15017KT 19/04 A2959 RMK A01 T01900036  RH  036%=      5-min Rain = 0
KOD1 102007Z 14017G25KT 19/04 A2959 RMK A01 T01910036  RH  036%=      5-min Rain = 0
KOD1 102008Z 15020KT 19/04 A2958 RMK A01 T01920035  RH  036%=      5-min Rain = 0
KOD1 102009Z 14018KT 19/04 A2958 RMK A01 T01920036  RH  036%=      5-min Rain = 0
KOD1 102010Z 15019KT 19/04 A2958 RMK A01 T01930036  RH  035%=      5-min Rain = 0
KOD1 102011Z 15020G25KT 19/04 A2958 RMK A01 T01930036  RH  035%=      5-min Rain = 0
KOD1 102012Z 15021KT 19/04 A2958 RMK A01 T01930035  RH  035%=      5-min Rain = 0
KOD1 102013Z 15020KT 19/04 A2958 RMK A01 T01930035  RH  035%=      5-min Rain = 0
KOD1 102014Z 15020G25KT 19/04 A2958 RMK A01 T01930035  RH  035%=      5-min Rain = 0
KOD1 102015Z 15021KT 19/04 A2958 RMK A01 T01930035  RH  035%=      5-min Rain = 0
KOD1 102016Z 15018G23KT 19/04 A2958 RMK A01 T01940036  RH  035%=      5-min Rain = 0
KOD1 102017Z 15019KT 19/04 A2957 RMK A01 T01940035  RH  035%=      5-min Rain = 0
KOD1 102018Z 14019G24KT 19/04 A2957 RMK A01 T01940036  RH  035%=      5-min Rain = 0
KOD1 102019Z 15019KT 20/04 A2957 RMK A01 T01950035  RH  035%=      5-min Rain = 0
KOD1 102020Z 15020KT 20/04 A2957 RMK A01 T01960035  RH  035%=      5-min Rain = 0
KOD1 102021Z 15019KT 20/04 A2957 RMK A01 T01950035  RH  035%=      5-min Rain = 0
KOD1 102022Z 15019KT 20/04 A2957 RMK A01 T01960036  RH  035%=      5-min Rain = 0
KOD1 102023Z 15016KT 20/04 A2957 RMK A01 T01980037  RH  034%=      5-min Rain = 0
KOD1 102024Z 15016KT 20/04 A2957 RMK A01 T02000036  RH  034%=      5-min Rain = 0
KOD1 102025Z 15017G23KT 20/04 A2957 RMK A01 T02020036  RH  034%=      5-min Rain = 0
KOD1 102026Z 15021KT 20/03 A2957 RMK A01 T02010034  RH  033%=      5-min Rain = 0
KOD1 102027Z 15019KT 20/04 A2957 RMK A01 T01990035  RH  034%=      5-min Rain = 0
KOD1 102028Z 15018KT 20/04 A2957 RMK A01 T01980035  RH  034%=      5-min Rain = 0
KOD1 102029Z 16014KT 20/04 A2957 RMK A01 T01980037  RH  034%=      5-min Rain = 0
KOD1 102030Z 16016KT 20/04 A2957 RMK A01 T01990036  RH  034%=      5-min Rain = 0
KOD1 102031Z 15017KT 20/04 A2957 RMK A01 T01990036  RH  034%=      5-min Rain = 0
KOD1 102032Z 15018G23KT 20/04 A2957 RMK A01 T02000035  RH  034%=      5-min Rain = 0
KOD1 102033Z 16019KT 20/04 A2957 RMK A01 T02000035  RH  034%=      5-min Rain = 0
KOD1 102034Z 16017G22KT 20/04 A2957 RMK A01 T02000036  RH  034%=      5-min Rain = 0
KOD1 102035Z 16017KT 20/04 A2957 RMK A01 T02000035  RH  034%=      5-min Rain = 0
KOD1 102036Z 17016KT 20/04 A2957 RMK A01 T02010036  RH  034%=      5-min Rain = 0
KOD1 102037Z 16017KT 20/04 A2957 RMK A01 T02010035  RH  033%=      5-min Rain = 0
KOD1 102038Z 16018KT 20/04 A2957 RMK A01 T02010035  RH  033%=      5-min Rain = 0
KOD1 102039Z 16018KT 20/04 A2957 RMK A01 T02010035  RH  033%=      5-min Rain = 0
KOD1 102040Z 16018KT 20/04 A2957 RMK A01 T02010035  RH  033%=      5-min Rain = 0
KOD1 102041Z 15020KT 20/04 A2957 RMK A01 T02020035  RH  033%=      5-min Rain = 0
KOD1 102042Z 15018KT 20/04 A2957 RMK A01 T02020035  RH  033%=      5-min Rain = 0
KOD1 102043Z 16018G23KT 20/04 A2957 RMK A01 T02030036  RH  033%=      5-min Rain = 0
KOD1 102044Z 15022KT 20/04 A2956 RMK A01 T02030035  RH  033%=      5-min Rain = 0
KOD1 102045Z 16017KT 20/04 A2956 RMK A01 T02030035  RH  033%=      5-min Rain = 0
KOD1 102046Z 15020KT 20/04 A2956 RMK A01 T02030035  RH  033%=      5-min Rain = 0
KOD1 102047Z 15017KT 20/04 A2956 RMK A01 T02040035  RH  033%=      5-min Rain = 0
KOD1 102048Z 17017KT 21/04 A2956 RMK A01 T02050036  RH  033%=      5-min Rain = 0
KOD1 102049Z 16017KT 21/04 A2956 RMK A01 T02060036  RH  033%=      5-min Rain = 0
KOD1 102050Z 16016KT 21/04 A2956 RMK A01 T02080037  RH  033%=      5-min Rain = 0
KOD1 102051Z 16017KT 21/04 A2956 RMK A01 T02090036  RH  032%=      5-min Rain = 0
KOD1 102052Z 15018KT 21/04 A2955 RMK A01 T02100036  RH  032%=      5-min Rain = 0
KOD1 102053Z 15018KT 21/04 A2955 RMK A01 T02100035  RH  032%=      5-min Rain = 0
KOD1 102054Z 16019KT 21/04 A2955 RMK A01 T02100036  RH  032%=      5-min Rain = 0
KOD1 102055Z 15016KT 21/04 A2955 RMK A01 T02120036  RH  032%=      5-min Rain = 0
KOD1 102056Z 15019G24KT 21/04 A2955 RMK A01 T02130035  RH  031%=      5-min Rain = 0
KOD1 102057Z 17020KT 21/04 A2955 RMK A01 T02140036  RH  031%=      5-min Rain = 0
KOD1 102058Z 17020KT 21/04 A2955 RMK A01 T02140036  RH  031%=      5-min Rain = 0
KOD1 102059Z 17019G25KT 22/04 A2955 RMK A01 T02150036  RH  031%=      5-min Rain = 0
KOD1 102100Z 16020G25KT 22/03 A2955 RMK A01 T02160034  RH  030%=      5-min Rain = 0
KOD1 102101Z 16023G28KT 22/03 A2955 RMK A01 T02170033  RH  030%=      5-min Rain = 0
KOD1 102102Z 17018KT 22/03 A2955 RMK A01 T02190034  RH  030%=      5-min Rain = 0
KOD1 102103Z 17019KT 22/03 A2955 RMK A01 T02210034  RH  029%=      5-min Rain = 0
KOD1 102104Z 16020KT 22/03 A2955 RMK A01 T02200032  RH  029%=      5-min Rain = 0
KOD1 102105Z 16022KT 22/03 A2955 RMK A01 T02190032  RH  029%=      5-min Rain = 0
KOD1 102106Z 16020KT 22/03 A2955 RMK A01 T02180033  RH  030%=      5-min Rain = 0
KOD1 102107Z 16022G28KT 22/03 A2955 RMK A01 T02180033  RH  030%=      5-min Rain = 0
KOD1 102108Z 17025KT 22/03 A2955 RMK A01 T02180033  RH  030%=      5-min Rain = 0
KOD1 102109Z 17022KT 22/03 A2955 RMK A01 T02170033  RH  030%=      5-min Rain = 0
KOD1 102110Z 17021KT 22/03 A2955 RMK A01 T02170033  RH  030%=      5-min Rain = 0
KOD1 102111Z 17024KT 22/03 A2955 RMK A01 T02180033  RH  030%=      5-min Rain = 0
KOD1 102112Z 17021KT 22/03 A2955 RMK A01 T02190033  RH  030%=      5-min Rain = 0
KOD1 102113Z 17026KT 22/03 A2955 RMK A01 T02190032  RH  029%=      5-min Rain = 0
KOD1 102114Z 18021G27KT 22/03 A2955 RMK A01 T02190032  RH  029%=      5-min Rain = 0
KOD1 102115Z 18020KT 22/03 A2955 RMK A01 T02190032  RH  029%=      5-min Rain = 0
KOD1 102116Z 17023KT 22/03 A2954 RMK A01 T02190032  RH  029%=      5-min Rain = 0
KOD1 102117Z 17018KT 22/03 A2954 RMK A01 T02190033  RH  030%=      5-min Rain = 0
KOD1 102118Z 17022G28KT 22/03 A2954 RMK A01 T02200033  RH  029%=      5-min Rain = 0
KOD1 102119Z 18021KT 22/03 A2954 RMK A01 T02200032  RH  029%=      5-min Rain = 0
KOD1 102120Z 17020KT 22/03 A2954 RMK A01 T02200033  RH  029%=      5-min Rain = 0
KOD1 102121Z 17021KT 22/03 A2954 RMK A01 T02200033  RH  029%=      5-min Rain = 0
KOD1 102122Z 18021KT 22/03 A2954 RMK A01 T02210033  RH  029%=      5-min Rain = 0
KOD1 102123Z 18022KT 22/03 A2954 RMK A01 T02210033  RH  029%=      5-min Rain = 0
KOD1 102124Z 18022KT 22/03 A2954 RMK A01 T02210033  RH  029%=      5-min Rain = 0
KOD1 102125Z 18022KT 22/03 A2954 RMK A01 T02220033  RH  029%=      5-min Rain = 0
KOD1 102126Z 18021KT 22/03 A2954 RMK A01 T02220033  RH  029%=      5-min Rain = 0
KOD1 102127Z 17021KT 22/03 A2954 RMK A01 T02220033  RH  029%=      5-min Rain = 0
KOD1 102128Z 17019G26KT 22/03 A2954 RMK A01 T02220033  RH  029%=      5-min Rain = 0
KOD1 102129Z 16016KT 22/03 A2954 RMK A01 T02230034  RH  029%=      5-min Rain = 0
KOD1 102130Z 16018KT 22/04 A2955 RMK A01 T02230035  RH  029%=      5-min Rain = 0
KOD1 102131Z 16017G22KT 22/04 A2955 RMK A01 T02220036  RH  030%=      5-min Rain = 0
KOD1 102132Z 16019KT 22/04 A2954 RMK A01 T02210035  RH  030%=      5-min Rain = 0
KOD1 102133Z 15018KT 22/04 A2954 RMK A01 T02180035  RH  030%=      5-min Rain = 0
KOD1 102134Z 15016KT 22/04 A2955 RMK A01 T02170035  RH  030%=      5-min Rain = 0
KOD1 102135Z 15018G24KT 22/04 A2955 RMK A01 T02170036  RH  030%=      5-min Rain = 0
KOD1 102136Z 16017KT 22/04 A2955 RMK A01 T02170036  RH  030%=      5-min Rain = 0
KOD1 102137Z 16017KT 22/04 A2955 RMK A01 T02170036  RH  030%=      5-min Rain = 0
KOD1 102138Z 16021G26KT 22/04 A2955 RMK A01 T02160035  RH  030%=      5-min Rain = 0
KOD1 102139Z 15022KT 22/04 A2955 RMK A01 T02150035  RH  031%=      5-min Rain = 0
KOD1 102140Z 15022KT 21/04 A2955 RMK A01 T02140035  RH  031%=      5-min Rain = 0
KOD1 102141Z 16019KT 21/04 A2955 RMK A01 T02130035  RH  031%=      5-min Rain = 0
KOD1 102142Z 15018KT 21/04 A2955 RMK A01 T02130035  RH  031%=      5-min Rain = 0
KOD1 102143Z 16017KT 21/04 A2955 RMK A01 T02110035  RH  031%=      5-min Rain = 0
KOD1 102144Z 15016KT 21/04 A2955 RMK A01 T02100035  RH  032%=      5-min Rain = 0
KOD1 102145Z 15018KT 21/04 A2955 RMK A01 T02090035  RH  032%=      5-min Rain = 0
KOD1 102146Z 16016KT 21/04 A2955 RMK A01 T02070035  RH  032%=      5-min Rain = 0
KOD1 102147Z 16018KT 21/04 A2955 RMK A01 T02070035  RH  032%=      5-min Rain = 0
KOD1 102148Z 15016KT 21/04 A2955 RMK A01 T02060035  RH  033%=      5-min Rain = 0
KOD1 102149Z 16016KT 21/04 A2955 RMK A01 T02050035  RH  033%=      5-min Rain = 0
KOD1 102150Z 15016G22KT 20/04 A2956 RMK A01 T02040036  RH  033%=      5-min Rain = 0
KOD1 102151Z 16017KT 20/04 A2956 RMK A01 T02040036  RH  033%=      5-min Rain = 0
KOD1 102152Z 16017KT 20/04 A2956 RMK A01 T02040036  RH  033%=      5-min Rain = 0
KOD1 102153Z 16015KT 20/04 A2956 RMK A01 T02030036  RH  033%=      5-min Rain = 0
KOD1 102154Z 16017KT 20/04 A2956 RMK A01 T02040036  RH  033%=      5-min Rain = 0
KOD1 102155Z 16017KT 20/04 A2956 RMK A01 T02040037  RH  033%=      5-min Rain = 0
KOD1 102156Z 16017KT 20/04 A2956 RMK A01 T02040037  RH  033%=      5-min Rain = 0
KOD1 102157Z 16017KT 20/04 A2956 RMK A01 T02040037  RH  033%=      5-min Rain = 0
KOD1 102158Z 16015KT 20/04 A2956 RMK A01 T02040037  RH  033%=      5-min Rain = 0
KOD1 102159Z 15019KT 21/04 A2955 RMK A01 T02050037  RH  033%=      5-min Rain = 0
KOD1 102200Z 15020KT 21/04 A2955 RMK A01 T02060037  RH  033%=      5-min Rain = 0
KOD1 102201Z 16021KT 21/04 A2955 RMK A01 T02070037  RH  033%=      5-min Rain = 0
KOD1 102202Z 15020KT 21/04 A2955 RMK A01 T02080037  RH  032%=      5-min Rain = 0
KOD1 102203Z 16020KT 21/04 A2955 RMK A01 T02090037  RH  032%=      5-min Rain = 0
KOD1 102204Z 15019KT 21/04 A2955 RMK A01 T02100037  RH  032%=      5-min Rain = 0
KOD1 102205Z 16016G21KT 21/04 A2955 RMK A01 T02100038  RH  032%=      5-min Rain = 0
KOD1 102206Z 16019KT 21/04 A2955 RMK A01 T02110038  RH  032%=      5-min Rain = 0
KOD1 102207Z 16017KT 21/04 A2955 RMK A01 T02110038  RH  032%=      5-min Rain = 0
KOD1 102208Z 16018KT 21/04 A2955 RMK A01 T02120038  RH  032%=      5-min Rain = 0
KOD1 102209Z 16016KT 21/04 A2955 RMK A01 T02120039  RH  032%=      5-min Rain = 0
KOD1 102210Z 15018KT 21/04 A2955 RMK A01 T02130039  RH  032%=      5-min Rain = 0
KOD1 102211Z 15018KT 21/04 A2955 RMK A01 T02130039  RH  032%=      5-min Rain = 0
KOD1 102212Z 15016KT 21/04 A2955 RMK A01 T02130039  RH  032%=      5-min Rain = 0
KOD1 102213Z 15019KT 21/04 A2955 RMK A01 T02120038  RH  032%=      5-min Rain = 0
KOD1 102214Z 15017KT 21/04 A2955 RMK A01 T02110039  RH  032%=      5-min Rain = 0
KOD1 102215Z 16017KT 21/04 A2955 RMK A01 T02100039  RH  032%=      5-min Rain = 0
KOD1 102216Z 16017KT 21/04 A2955 RMK A01 T02100039  RH  032%=      5-min Rain = 0
KOD1 102217Z 15019KT 21/04 A2955 RMK A01 T02110039  RH  032%=      5-min Rain = 0
KOD1 102218Z 15018KT 21/04 A2955 RMK A01 T02100040  RH  033%=      5-min Rain = 0
KOD1 102219Z 15017KT 21/04 A2955 RMK A01 T02100041  RH  033%=      5-min Rain = 0
KOD1 102220Z 14014G19KT 21/04 A2955 RMK A01 T02100041  RH  033%=      5-min Rain = 0
KOD1 102221Z 14017KT 21/04 A2954 RMK A01 T02090040  RH  033%=      5-min Rain = 0
KOD1 102222Z 15016KT 21/04 A2954 RMK A01 T02080040  RH  033%=      5-min Rain = 0
KOD1 102223Z 14016G21KT 21/04 A2954 RMK A01 T02080040  RH  033%=      5-min Rain = 0
KOD1 102224Z 14018KT 21/04 A2954 RMK A01 T02070040  RH  033%=      5-min Rain = 0
KOD1 102225Z 15019KT 21/04 A2954 RMK A01 T02060040  RH  034%=      5-min Rain = 0
KOD1 102226Z 15018KT 21/04 A2954 RMK A01 T02050041  RH  034%=      5-min Rain = 0
KOD1 102227Z 15017KT 20/04 A2954 RMK A01 T02040041  RH  034%=      5-min Rain = 0
KOD1 102228Z 15021KT 20/04 A2954 RMK A01 T02020041  RH  035%=      5-min Rain = 0
KOD1 102229Z 15019KT 20/04 A2954 RMK A01 T02010042  RH  035%=      5-min Rain = 0
KOD1 102230Z 16018KT 20/04 A2954 RMK A01 T02000042  RH  035%=      5-min Rain = 0
KOD1 102231Z 15018KT 20/04 A2954 RMK A01 T01980042  RH  036%=      5-min Rain = 0
KOD1 102232Z 16021KT 20/04 A2954 RMK A01 T01970042  RH  036%=      5-min Rain = 0
KOD1 102233Z 15018KT 20/04 A2954 RMK A01 T01970042  RH  036%=      5-min Rain = 0
KOD1 102234Z 15017KT 20/04 A2954 RMK A01 T01960042  RH  036%=      5-min Rain = 0
KOD1 102235Z 15017KT 20/04 A2954 RMK A01 T01950043  RH  036%=      5-min Rain = 0
KOD1 102236Z 15017KT 20/04 A2954 RMK A01 T01950043  RH  037%=      5-min Rain = 0
KOD1 102237Z 15017KT 19/04 A2954 RMK A01 T01940043  RH  037%=      5-min Rain = 0
KOD1 102238Z 15017KT 19/04 A2954 RMK A01 T01940043  RH  037%=      5-min Rain = 0
KOD1 102239Z 15018KT 20/04 A2954 RMK A01 T01950043  RH  037%=      5-min Rain = 0
KOD1 102240Z 15016KT 20/04 A2954 RMK A01 T01960043  RH  036%=      5-min Rain = 0
KOD1 102241Z 15016KT 20/04 A2954 RMK A01 T01970043  RH  036%=      5-min Rain = 0
KOD1 102242Z 15017G22KT 20/04 A2954 RMK A01 T01970043  RH  036%=      5-min Rain = 0
KOD1 102243Z 15018KT 20/04 A2954 RMK A01 T01970043  RH  036%=      5-min Rain = 0
KOD1 102244Z 14019KT 20/04 A2954 RMK A01 T01980043  RH  036%=      5-min Rain = 0
KOD1 102245Z 15021KT 20/04 A2954 RMK A01 T01980043  RH  036%=      5-min Rain = 0
KOD1 102246Z 14018KT 20/04 A2953 RMK A01 T01980043  RH  036%=      5-min Rain = 0
KOD1 102247Z 14018G23KT 20/04 A2953 RMK A01 T01980043  RH  036%=      5-min Rain = 0
KOD1 102248Z 14020KT 20/04 A2953 RMK A01 T01980043  RH  036%=      5-min Rain = 0
KOD1 102249Z 14020KT 20/04 A2953 RMK A01 T01980043  RH  036%=      5-min Rain = 0
KOD1 102250Z 14018KT 20/04 A2953 RMK A01 T01970043  RH  036%=      5-min Rain = 0
KOD1 102251Z 15021KT 20/04 A2953 RMK A01 T01970043  RH  036%=      5-min Rain = 0
KOD1 102252Z 14019KT 20/04 A2953 RMK A01 T01970043  RH  036%=      5-min Rain = 0
KOD1 102253Z 15018KT 20/04 A2953 RMK A01 T01970043  RH  036%=      5-min Rain = 0
KOD1 102254Z 15018KT 20/04 A2953 RMK A01 T01960043  RH  036%=      5-min Rain = 0
KOD1 102255Z 14015KT 20/04 A2953 RMK A01 T01960043  RH  036%=      5-min Rain = 0
KOD1 102256Z 15018KT 20/04 A2953 RMK A01 T01950043  RH  037%=      5-min Rain = 0
KOD1 102257Z 15020G25KT 20/04 A2953 RMK A01 T01950043  RH  037%=      5-min Rain = 0
KOD1 102258Z 15018KT 20/04 A2953 RMK A01 T01950043  RH  037%=      5-min Rain = 0
KOD1 102259Z 14017KT 19/04 A2953 RMK A01 T01940043  RH  037%=      5-min Rain = 0
KOD1 102300Z 14016KT 19/04 A2953 RMK A01 T01940043  RH  037%=      5-min Rain = 0
KOD1 102301Z 14019G25KT 19/04 A2953 RMK A01 T01940043  RH  037%=      5-min Rain = 0
KOD1 102302Z 15020G26KT 19/04 A2953 RMK A01 T01940044  RH  037%=      5-min Rain = 0
KOD1 102303Z 15019KT 19/04 A2953 RMK A01 T01930044  RH  037%=      5-min Rain = 0
KOD1 102304Z 15019KT 19/04 A2953 RMK A01 T01930043  RH  037%=      5-min Rain = 0
KOD1 102305Z 14020KT 19/04 A2953 RMK A01 T01930044  RH  037%=      5-min Rain = 0
KOD1 102306Z 14021KT 19/04 A2953 RMK A01 T01920043  RH  037%=      5-min Rain = 0
KOD1 102307Z 15021KT 19/04 A2953 RMK A01 T01920043  RH  037%=      5-min Rain = 0
KOD1 102308Z 15021KT 19/04 A2953 RMK A01 T01920043  RH  037%=      5-min Rain = 0
KOD1 102309Z 15022KT 19/04 A2953 RMK A01 T01920043  RH  038%=      5-min Rain = 0
KOD1 102310Z 15021G26KT 19/04 A2953 RMK A01 T01910043  RH  038%=      5-min Rain = 0
KOD1 102311Z 15019KT 19/04 A2953 RMK A01 T01910043  RH  038%=      5-min Rain = 0
KOD1 102312Z 15021KT 19/04 A2953 RMK A01 T01910044  RH  038%=      5-min Rain = 0
KOD1 102313Z 15019KT 19/04 A2953 RMK A01 T01900044  RH  038%=      5-min Rain = 0
KOD1 102314Z 15017G24KT 19/04 A2953 RMK A01 T01900044  RH  038%=      5-min Rain = 0
KOD1 102315Z 15021KT 19/04 A2952 RMK A01 T01890044  RH  038%=      5-min Rain = 0
KOD1 102316Z 14020G25KT 19/04 A2952 RMK A01 T01890044  RH  038%=      5-min Rain = 0
KOD1 102317Z 15022KT 19/04 A2952 RMK A01 T01890044  RH  038%=      5-min Rain = 0
KOD1 102318Z 15022KT 19/04 A2952 RMK A01 T01890044  RH  038%=      5-min Rain = 0
KOD1 102319Z 15019G24KT 19/04 A2952 RMK A01 T01880044  RH  038%=      5-min Rain = 0
KOD1 102320Z 15019KT 19/04 A2952 RMK A01 T01880044  RH  039%=      5-min Rain = 0
KOD1 102321Z 15018KT 19/04 A2952 RMK A01 T01870044  RH  039%=      5-min Rain = 0
KOD1 102322Z 15018KT 19/04 A2952 RMK A01 T01860044  RH  039%=      5-min Rain = 0
KOD1 102323Z 15018KT 19/04 A2952 RMK A01 T01860044  RH  039%=      5-min Rain = 0
KOD1 102324Z 15017KT 19/04 A2952 RMK A01 T01850044  RH  039%=      5-min Rain = 0
KOD1 102325Z 15020KT 19/04 A2952 RMK A01 T01850044  RH  039%=      5-min Rain = 0
KOD1 102326Z 15018KT 19/04 A2952 RMK A01 T01850044  RH  039%=      5-min Rain = 0
KOD1 102327Z 14016G21KT 18/04 A2952 RMK A01 T01840044  RH  039%=      5-min Rain = 0
KOD1 102328Z 14017KT 18/04 A2953 RMK A01 T01840044  RH  040%=      5-min Rain = 0
KOD1 102329Z 14016KT 18/04 A2953 RMK A01 T01830044  RH  040%=      5-min Rain = 0
KOD1 102330Z 14015KT 18/04 A2953 RMK A01 T01830044  RH  040%=      5-min Rain = 0
KOD1 102331Z 14017KT 18/04 A2953 RMK A01 T01820044  RH  040%=      5-min Rain = 0
KOD1 102332Z 14018KT 18/05 A2953 RMK A01 T01820045  RH  040%=      5-min Rain = 0
KOD1 102333Z 14017KT 18/04 A2953 RMK A01 T01820044  RH  040%=      5-min Rain = 0
KOD1 102334Z 14016G21KT 18/04 A2953 RMK A01 T01820044  RH  040%=      5-min Rain = 0
KOD1 102335Z 14016KT 18/04 A2953 RMK A01 T01810044  RH  040%=      5-min Rain = 0
KOD1 102336Z 14017KT 18/05 A2953 RMK A01 T01810045  RH  041%=      5-min Rain = 0
KOD1 102337Z 14017KT 18/05 A2953 RMK A01 T01800045  RH  041%=      5-min Rain = 0
KOD1 102338Z 14017KT 18/04 A2953 RMK A01 T01800044  RH  041%=      5-min Rain = 0
KOD1 102339Z 14017KT 18/04 A2953 RMK A01 T01790044  RH  041%=      5-min Rain = 0
KOD1 102340Z 14017KT 18/05 A2953 RMK A01 T01790045  RH  041%=      5-min Rain = 0
KOD1 102341Z 14017KT 18/05 A2953 RMK A01 T01790045  RH  041%=      5-min Rain = 0
KOD1 102342Z 14018KT 18/05 A2953 RMK A01 T01790045  RH  041%=      5-min Rain = 0
KOD1 102343Z 14015KT 18/04 A2953 RMK A01 T01790044  RH  041%=      5-min Rain = 0
KOD1 102344Z 14018KT 18/05 A2953 RMK A01 T01790045  RH  041%=      5-min Rain = 0
KOD1 102345Z 14018KT 18/05 A2953 RMK A01 T01790045  RH  041%=      5-min Rain = 0
KOD1 102346Z 14017KT 18/05 A2953 RMK A01 T01790045  RH  041%=      5-min Rain = 0
KOD1 102347Z 14015G21KT 18/05 A2953 RMK A01 T01790045  RH  041%=      5-min Rain = 0
KOD1 102348Z 14017KT 18/05 A2953 RMK A01 T01780045  RH  041%=      5-min Rain = 0
KOD1 102349Z 14017KT 18/05 A2953 RMK A01 T01780045  RH  041%=      5-min Rain = 0
KOD1 102350Z 14018KT 18/05 A2953 RMK A01 T01780045  RH  041%=      5-min Rain = 0
KOD1 102351Z 14016KT 18/05 A2953 RMK A01 T01780045  RH  041%=      5-min Rain = 0
KOD1 102352Z 14017KT 18/05 A2953 RMK A01 T01780045  RH  041%=      5-min Rain = 0
KOD1 102353Z 14017KT 18/05 A2953 RMK A01 T01780045  RH  041%=      5-min Rain = 0
KOD1 102354Z 14017KT 18/05 A2952 RMK A01 T01770045  RH  041%=      5-min Rain = 0
KOD1 102355Z 14017KT 18/05 A2952 RMK A01 T01770045  RH  041%=      5-min Rain = 0
KOD1 102356Z 14020KT 18/05 A2952 RMK A01 T01770045  RH  042%=      5-min Rain = 0
KOD1 102357Z 14019G25KT 18/05 A2952 RMK A01 T01770045  RH  041%=      5-min Rain = 0
KOD1 102358Z 14017KT 18/05 A2952 RMK A01 T01770045  RH  042%=      5-min Rain = 0
KOD1 102359Z 14019KT 18/05 A2952 RMK A01 T01770045  RH  042%=      5-min Rain = 0
KOD1 110000Z 14019KT 18/05 A2952 RMK A01 T01770045  RH  042%=      5-min Rain = 0
KOD1 110001Z 14020KT 18/05 A2952 RMK A01 T01770045  RH  042%=      5-min Rain = 0
KOD1 110002Z 14021KT 18/05 A2952 RMK A01 T01770045  RH  042%=      5-min Rain = 0
KOD1 110003Z 14018KT 18/04 A2952 RMK A01 T01770044  RH  042%=      5-min Rain = 0
KOD1 110004Z 14018KT 18/04 A2952 RMK A01 T01760044  RH  042%=      5-min Rain = 0
KOD1 110005Z 14021KT 18/05 A2952 RMK A01 T01760045  RH  042%=      5-min Rain = 0
KOD1 110006Z 14017G24KT 18/04 A2952 RMK A01 T01750044  RH  042%=      5-min Rain = 0
KOD1 110007Z 14019KT 18/05 A2952 RMK A01 T01750045  RH  042%=      5-min Rain = 0
KOD1 110008Z 14016KT 17/04 A2952 RMK A01 T01740044  RH  042%=      5-min Rain = 0
KOD1 110009Z 14018KT 17/05 A2952 RMK A01 T01740045  RH  042%=      5-min Rain = 0
KOD1 110010Z 14015G21KT 17/05 A2952 RMK A01 T01730045  RH  043%=      5-min Rain = 0
KOD1 110011Z 14019KT 17/05 A2952 RMK A01 T01720045  RH  043%=      5-min Rain = 0
KOD1 110012Z 14017KT 17/05 A2952 RMK A01 T01730045  RH  043%=      5-min Rain = 0
KOD1 110013Z 14018KT 17/05 A2953 RMK A01 T01720045  RH  043%=      5-min Rain = 0
KOD1 110014Z 14017KT 17/05 A2953 RMK A01 T01720045  RH  043%=      5-min Rain = 0
KOD1 110015Z 14016KT 17/05 A2953 RMK A01 T01720045  RH  043%=      5-min Rain = 0
KOD1 110016Z 14017KT 17/05 A2952 RMK A01 T01720045  RH  043%=      5-min Rain = 0
KOD1 110017Z 14015KT 17/05 A2953 RMK A01 T01710045  RH  043%=      5-min Rain = 0
KOD1 110018Z 14016KT 17/05 A2953 RMK A01 T01710045  RH  043%=      5-min Rain = 0
KOD1 110019Z 14014KT 17/05 A2953 RMK A01 T01700045  RH  044%=      5-min Rain = 0
KOD1 110020Z 14014KT 17/05 A2953 RMK A01 T01690045  RH  044%=      5-min Rain = 0
KOD1 110021Z 14016KT 17/05 A2953 RMK A01 T01680045  RH  044%=      5-min Rain = 0
KOD1 110022Z 13016KT 17/05 A2953 RMK A01 T01670045  RH  044%=      5-min Rain = 0
KOD1 110023Z 13016KT 17/05 A2953 RMK A01 T01670045  RH  044%=      5-min Rain = 0
KOD1 110024Z 13015KT 17/05 A2953 RMK A01 T01660045  RH  045%=      5-min Rain = 0
KOD1 110025Z 13016KT 17/05 A2953 RMK A01 T01660045  RH  045%=      5-min Rain = 0
KOD1 110026Z 13016KT 17/05 A2953 RMK A01 T01650046  RH  045%=      5-min Rain = 0
KOD1 110027Z 13016KT 17/05 A2952 RMK A01 T01650046  RH  045%=      5-min Rain = 0
KOD1 110028Z 13016KT 17/05 A2953 RMK A01 T01650046  RH  045%=      5-min Rain = 0
KOD1 110029Z 12017G22KT 17/05 A2953 RMK A01 T01650047  RH  045%=      5-min Rain = 0
KOD1 110030Z 13014KT 16/05 A2953 RMK A01 T01640047  RH  046%=      5-min Rain = 0
KOD1 110031Z 13014G20KT 16/05 A2953 RMK A01 T01630047  RH  046%=      5-min Rain = 0
KOD1 110032Z 13015KT 16/05 A2953 RMK A01 T01620048  RH  047%=      5-min Rain = 0
KOD1 110033Z 13015KT 16/05 A2953 RMK A01 T01610048  RH  047%=      5-min Rain = 0
KOD1 110034Z 13017KT 16/05 A2953 RMK A01 T01610049  RH  047%=      5-min Rain = 0
KOD1 110035Z 13014KT 16/05 A2953 RMK A01 T01610049  RH  047%=      5-min Rain = 0
KOD1 110036Z 13016G21KT 16/05 A2953 RMK A01 T01600050  RH  048%=      5-min Rain = 0
KOD1 110037Z 13016G21KT 16/05 A2953 RMK A01 T01600050  RH  048%=      5-min Rain = 0
KOD1 110038Z 14016KT 16/05 A2953 RMK A01 T01600050  RH  048%=      5-min Rain = 0
KOD1 110039Z 13017G22KT 16/05 A2953 RMK A01 T01590051  RH  048%=      5-min Rain = 0
KOD1 110040Z 13016KT 16/05 A2953 RMK A01 T01590050  RH  048%=      5-min Rain = 0
KOD1 110041Z 13019KT 16/05 A2953 RMK A01 T01590051  RH  049%=      5-min Rain = 0
KOD1 110042Z 14018KT 16/05 A2953 RMK A01 T01590051  RH  049%=      5-min Rain = 0
KOD1 110043Z 14018KT 16/05 A2953 RMK A01 T01590051  RH  049%=      5-min Rain = 0
KOD1 110044Z 14017KT 16/05 A2953 RMK A01 T01580051  RH  049%=      5-min Rain = 0
KOD1 110045Z 13017KT 16/05 A2953 RMK A01 T01580052  RH  049%=      5-min Rain = 0
KOD1 110046Z 14016KT 16/05 A2953 RMK A01 T01570052  RH  049%=      5-min Rain = 0
KOD1 110047Z 14016KT 16/05 A2953 RMK A01 T01570052  RH  050%=      5-min Rain = 0
KOD1 110048Z 14018KT 16/05 A2953 RMK A01 T01570052  RH  050%=      5-min Rain = 0
KOD1 110049Z 14014KT 16/05 A2953 RMK A01 T01560051  RH  050%=      5-min Rain = 0
KOD1 110050Z 14017KT 16/05 A2953 RMK A01 T01550052  RH  050%=      5-min Rain = 0
KOD1 110051Z 14017KT 16/05 A2953 RMK A01 T01550052  RH  050%=      5-min Rain = 0
KOD1 110052Z 13016KT 16/05 A2953 RMK A01 T01550052  RH  050%=      5-min Rain = 0
KOD1 110053Z 13017KT 16/05 A2953 RMK A01 T01550052  RH  050%=      5-min Rain = 0
KOD1 110054Z 14017KT 16/05 A2953 RMK A01 T01550053  RH  051%=      5-min Rain = 0
KOD1 110055Z 13017KT 15/05 A2953 RMK A01 T01540053  RH  051%=      5-min Rain = 0
KOD1 110056Z 14019KT 15/05 A2953 RMK A01 T01540053  RH  051%=      5-min Rain = 0
KOD1 110057Z 14017KT 15/05 A2953 RMK A01 T01540053  RH  051%=      5-min Rain = 0
KOD1 110058Z 13017KT 15/05 A2953 RMK A01 T01540053  RH  051%=      5-min Rain = 0
KOD1 110059Z 13018G23KT 15/05 A2953 RMK A01 T01540054  RH  051%=      5-min Rain = 0
KOD1 110100Z 14020KT 15/05 A2953 RMK A01 T01540054  RH  051%=      5-min Rain = 0
KOD1 110101Z 14017KT 15/05 A2953 RMK A01 T01530054  RH  051%=      5-min Rain = 0
KOD1 110102Z 13017KT 15/05 A2953 RMK A01 T01530054  RH  052%=      5-min Rain = 0
KOD1 110103Z 14017G22KT 15/05 A2953 RMK A01 T01530054  RH  052%=      5-min Rain = 0
KOD1 110104Z 13019KT 15/06 A2953 RMK A01 T01530055  RH  052%=      5-min Rain = 0
KOD1 110105Z 14019KT 15/06 A2953 RMK A01 T01530055  RH  052%=      5-min Rain = 0
KOD1 110106Z 13016KT 15/06 A2953 RMK A01 T01530055  RH  052%=      5-min Rain = 0
KOD1 110107Z 14016KT 15/06 A2953 RMK A01 T01530055  RH  052%=      5-min Rain = 0
KOD1 110108Z 14017KT 15/06 A2953 RMK A01 T01520055  RH  052%=      5-min Rain = 0
KOD1 110109Z 14016KT 15/06 A2954 RMK A01 T01520056  RH  052%=      5-min Rain = 0
KOD1 110110Z 14018KT 15/06 A2954 RMK A01 T01520056  RH  053%=      5-min Rain = 0
KOD1 110111Z 14017KT 15/06 A2954 RMK A01 T01520056  RH  053%=      5-min Rain = 0
KOD1 110112Z 14020KT 15/06 A2954 RMK A01 T01530057  RH  053%=      5-min Rain = 0
KOD1 110113Z 14019KT 15/06 A2954 RMK A01 T01530057  RH  052%=      5-min Rain = 0
KOD1 110114Z 14019KT 15/06 A2954 RMK A01 T01540057  RH  052%=      5-min Rain = 0
KOD1 110115Z 14018KT 15/06 A2954 RMK A01 T01540057  RH  053%=      5-min Rain = 0
KOD1 110116Z 14017KT 15/06 A2954 RMK A01 T01540057  RH  053%=      5-min Rain = 0
KOD1 110117Z 14019KT 15/06 A2954 RMK A01 T01530058  RH  053%=      5-min Rain = 0
KOD1 110118Z 14018KT 15/06 A2954 RMK A01 T01530058  RH  053%=      5-min Rain = 0
KOD1 110119Z 14019KT 15/06 A2954 RMK A01 T01540059  RH  053%=      5-min Rain = 0
KOD1 110120Z 14019G24KT 15/06 A2954 RMK A01 T01540059  RH  053%=      5-min Rain = 0
KOD1 110121Z 14021KT 15/06 A2954 RMK A01 T01540059  RH  053%=      5-min Rain = 0
KOD1 110122Z 15020KT 16/06 A2954 RMK A01 T01550059  RH  053%=      5-min Rain = 0
KOD1 110123Z 14023KT 16/06 A2954 RMK A01 T01550060  RH  053%=      5-min Rain = 0
KOD1 110124Z 14019KT 16/06 A2954 RMK A01 T01550060  RH  053%=      5-min Rain = 0
KOD1 110125Z 15018KT 16/06 A2954 RMK A01 T01550060  RH  053%=      5-min Rain = 0
KOD1 110126Z 15018KT 16/06 A2955 RMK A01 T01550060  RH  053%=      5-min Rain = 0
KOD1 110127Z 15019G25KT 15/06 A2955 RMK A01 T01540060  RH  053%=      5-min Rain = 0
KOD1 110128Z 15021G27KT 15/06 A2955 RMK A01 T01540060  RH  054%=      5-min Rain = 0
KOD1 110129Z 15019KT 15/06 A2955 RMK A01 T01540060  RH  054%=      5-min Rain = 0
KOD1 110130Z 15021KT 15/06 A2955 RMK A01 T01540061  RH  054%=      5-min Rain = 0
KOD1 110131Z 15020G26KT 15/06 A2955 RMK A01 T01540061  RH  054%=      5-min Rain = 0
KOD1 110132Z 15023KT 15/06 A2955 RMK A01 T01540061  RH  054%=      5-min Rain = 0
KOD1 110133Z 15024KT 16/06 A2955 RMK A01 T01550062  RH  054%=      5-min Rain = 0
KOD1 110134Z 15025KT 16/06 A2956 RMK A01 T01550062  RH  054%=      5-min Rain = 0
KOD1 110135Z 15022G27KT 16/06 A2956 RMK A01 T01550062  RH  054%=      5-min Rain = 0
KOD1 110136Z 15025G30KT 16/06 A2955 RMK A01 T01550062  RH  054%=      5-min Rain = 0
KOD1 110137Z 14021KT 16/06 A2955 RMK A01 T01550062  RH  054%=      5-min Rain = 0
KOD1 110138Z 15021G26KT 16/06 A2955 RMK A01 T01550062  RH  054%=      5-min Rain = 0
KOD1 110139Z 14020G25KT 16/06 A2954 RMK A01 T01550062  RH  054%=      5-min Rain = 0
KOD1 110140Z 14019KT 15/06 A2954 RMK A01 T01540062  RH  054%=      5-min Rain = 0
KOD1 110141Z 15022G27KT 15/06 A2955 RMK A01 T01540063  RH  055%=      5-min Rain = 0
KOD1 110142Z 14020G25KT 15/06 A2955 RMK A01 T01540063  RH  055%=      5-min Rain = 0
KOD1 110143Z 15020KT 15/06 A2955 RMK A01 T01540063  RH  055%=      5-min Rain = 0
KOD1 110144Z 15028G33KT 16/07 A2955 RMK A01 T01550065  RH  055%=      5-min Rain = 0
KOD1 110145Z 15026G32KT 16/07 A2955 RMK A01 T01560065  RH  055%=      5-min Rain = 0
KOD1 110146Z 15023KT 16/07 A2954 RMK A01 T01570065  RH  055%=      5-min Rain = 0
KOD1 110147Z 15021G26KT 16/07 A2954 RMK A01 T01570066  RH  055%=      5-min Rain = 0
KOD1 110148Z 15021G29KT 16/07 A2953 RMK A01 T01560067  RH  055%=      5-min Rain = 0
KOD1 110149Z 16023G31KT 16/07 A2953 RMK A01 T01560069  RH  056%=      5-min Rain = 0
KOD1 110150Z 16024G29KT 16/07 A2953 RMK A01 T01560070  RH  057%=      5-min Rain = 0
KOD1 110151Z 16024KT 16/07 A2952 RMK A01 T01550073  RH  058%=      5-min Rain = 0
KOD1 110152Z 16027G35KT 16/07 A2952 RMK A01 T01550074  RH  058%=      5-min Rain = 0
KOD1 110153Z 16026KT 16/08 A2952 RMK A01 T01560076  RH  059%=      5-min Rain = 0
KOD1 110154Z 16025G30KT 16/08 A2952 RMK A01 T01550077  RH  060%=      5-min Rain = 0
KOD1 110155Z 16025G31KT 16/08 A2952 RMK A01 T01550079  RH  060%=      5-min Rain = 0
KOD1 110156Z 16028KT 15/08 A2952 RMK A01 T01540080  RH  061%=      5-min Rain = 0
KOD1 110157Z 16027G32KT 15/08 A2952 RMK A01 T01540081  RH  062%=      5-min Rain = 0
KOD1 110158Z 16026G32KT 15/08 A2952 RMK A01 T01540081  RH  062%=      5-min Rain = 0
KOD1 110159Z 16027G32KT 15/08 A2952 RMK A01 T01540079  RH  061%=      5-min Rain = 0
KOD1 110200Z 17027G33KT 16/07 A2953 RMK A01 T01580073  RH  057%=      5-min Rain = 0
KOD1 110201Z 18022G28KT 16/07 A2953 RMK A01 T01620072  RH  055%=      5-min Rain = 0
KOD1 110202Z 19021KT 16/08 A2954 RMK A01 T01630075  RH  056%=      5-min Rain = 0
KOD1 110203Z 19023KT 16/08 A2954 RMK A01 T01620077  RH  057%=      5-min Rain = 0
KOD1 110204Z 19025G33KT 16/08 A2954 RMK A01 T01620078  RH  057%=      5-min Rain = 0
KOD1 110205Z 18025G33KT 16/08 A2954 RMK A01 T01620078  RH  057%=      5-min Rain = 0
KOD1 110206Z 17029G36KT 16/08 A2955 RMK A01 T01620079  RH  058%=      5-min Rain = 0
KOD1 110207Z 18028G33KT 16/08 A2955 RMK A01 T01620080  RH  058%=      5-min Rain = 0
KOD1 110208Z 18029G35KT 16/08 A2956 RMK A01 T01600082  RH  060%=      5-min Rain = 0
KOD1 110209Z 18029KT 16/08 A2956 RMK A01 T01590084  RH  061%=      5-min Rain = 0
KOD1 110210Z 17026KT 16/09 A2956 RMK A01 T01570085  RH  062%=      5-min Rain = 0
KOD1 110211Z 17026G31KT 16/09 A2956 RMK A01 T01560085  RH  063%=      5-min Rain = 0
KOD1 110212Z 17027G32KT 16/09 A2957 RMK A01 T01550085  RH  063%=      5-min Rain = 0
KOD1 110213Z 17027KT 16/09 A2958 RMK A01 T01550085  RH  063%=      5-min Rain = 0
KOD1 110214Z 17030G37KT 16/09 A2957 RMK A01 T01550086  RH  063%=      5-min Rain = 0
KOD1 110215Z 17028G33KT 16/09 A2958 RMK A01 T01550088  RH  064%=      5-min Rain = 0
KOD1 110216Z 17028KT 15/09 A2958 RMK A01 T01540091  RH  066%=      5-min Rain = 0
KOD1 110217Z 18029KT 15/09 A2958 RMK A01 T01530093  RH  068%=      5-min Rain = 0
KOD1 110218Z 17026KT 15/10 A2959 RMK A01 T01510097  RH  070%=      5-min Rain = 0
KOD1 110219Z 18028G36KT 15/10 A2959 RMK A01 T01490098  RH  072%=      5-min Rain = 0
KOD1 110220Z 17031G39KT 15/10 A2959 RMK A01 T01480098  RH  072%=      5-min Rain = 0
KOD1 110221Z 18027G34KT 15/10 A296 RMK A01 T01460101  RH  074%=      5-min Rain = 0
KOD1 110222Z 18030G38KT 15/10 A296 RMK A01 T01450100  RH  074%=      5-min Rain = 0
KOD1 110223Z 18032G37KT 15/10 A296 RMK A01 T01480098  RH  072%=      5-min Rain = 0
KOD1 110224Z 18030KT 15/10 A296 RMK A01 T01480099  RH  072%=      5-min Rain = 0
KOD1 110225Z 18026G32KT 15/10 A2961 RMK A01 T01490100  RH  072%=      5-min Rain = 0
KOD1 110226Z 18028G33KT 15/10 A2961 RMK A01 T01480101  RH  073%=      5-min Rain = 0
KOD1 110227Z 17029KT 15/10 A2961 RMK A01 T01470102  RH  075%=      5-min Rain = 0
KOD1 110228Z 17027G32KT 15/10 A2961 RMK A01 T01450103  RH  076%=      5-min Rain = 0
KOD1 110229Z 18023G29KT 14/10 A2961 RMK A01 T01440103  RH  076%=      5-min Rain = 0
KOD1 110230Z 18024G29KT 14/10 A2961 RMK A01 T01430103  RH  077%=      5-min Rain = 0
KOD1 110231Z 18027KT 14/10 A2961 RMK A01 T01440102  RH  076%=      5-min Rain = 0
KOD1 110232Z 18025G30KT 15/10 A2961 RMK A01 T01450101  RH  075%=      5-min Rain = 0
KOD1 110233Z 18025G32KT 15/10 A2961 RMK A01 T01460101  RH  075%=      5-min Rain = 0
KOD1 110234Z 18024G31KT 15/10 A2961 RMK A01 T01470101  RH  074%=      5-min Rain = 0
KOD1 110235Z 18023G28KT 15/10 A2961 RMK A01 T01470102  RH  075%=      5-min Rain = 0
KOD1 110236Z 18020KT 15/10 A2961 RMK A01 T01470102  RH  074%=      5-min Rain = 0
KOD1 110237Z 18018G23KT 15/10 A2961 RMK A01 T01460103  RH  075%=      5-min Rain = 0
KOD1 110238Z 18023KT 15/10 A2961 RMK A01 T01450104  RH  076%=      5-min Rain = 0
KOD1 110239Z 18023KT 15/10 A2961 RMK A01 T01450104  RH  076%=      5-min Rain = 0
KOD1 110240Z 18024KT 15/10 A2961 RMK A01 T01450103  RH  076%=      5-min Rain = 0
KOD1 110241Z 18020KT 15/10 A2961 RMK A01 T01450104  RH  076%=      5-min Rain = 0
KOD1 110242Z 18021G27KT 14/11 A2961 RMK A01 T01440105  RH  077%=      5-min Rain = 0
KOD1 110243Z 19020KT 14/10 A2961 RMK A01 T01440104  RH  077%=      5-min Rain = 0
KOD1 110244Z 19020KT 14/11 A2961 RMK A01 T01440105  RH  077%=      5-min Rain = 0
KOD1 110245Z 18019KT 14/11 A2962 RMK A01 T01440106  RH  078%=      5-min Rain = 0
KOD1 110246Z 18019KT 14/11 A2962 RMK A01 T01440105  RH  078%=      5-min Rain = 0
KOD1 110247Z 18018KT 14/11 A2962 RMK A01 T01430106  RH  078%=      5-min Rain = 0
KOD1 110248Z 18020KT 14/11 A2962 RMK A01 T01430106  RH  079%=      5-min Rain = 0
KOD1 110249Z 18019G25KT 14/11 A2961 RMK A01 T01420106  RH  079%=      5-min Rain = 0
KOD1 110250Z 17017KT 14/11 A2961 RMK A01 T01420107  RH  079%=      5-min Rain = 0
KOD1 110251Z 17018KT 14/11 A296 RMK A01 T01410107  RH  080%=      5-min Rain = 0
KOD1 110252Z 17017KT 14/11 A296 RMK A01 T01410107  RH  080%=      5-min Rain = 0
KOD1 110253Z 17017KT 14/11 A296 RMK A01 T01410107  RH  080%=      5-min Rain = 0
KOD1 110254Z 17016KT 14/11 A2961 RMK A01 T01410107  RH  080%=      5-min Rain = 0
KOD1 110255Z 17016G21KT 14/11 A2961 RMK A01 T01400107  RH  081%=      5-min Rain = 0
KOD1 110256Z 18017KT 14/11 A2961 RMK A01 T01400107  RH  081%=      5-min Rain = 0
KOD1 110257Z 18018KT 14/11 A2962 RMK A01 T01400108  RH  081%=      5-min Rain = 0
KOD1 110258Z 18018KT 14/11 A2962 RMK A01 T01390108  RH  081%=      5-min Rain = 0
KOD1 110259Z 18016KT 14/11 A2962 RMK A01 T01390108  RH  082%=      5-min Rain = 0
KOD1 110300Z 18015KT 14/11 A2962 RMK A01 T01380108  RH  082%=      5-min Rain = 0
KOD1 110301Z 17018G23KT 14/11 A2961 RMK A01 T01380108  RH  083%=      5-min Rain = 0
KOD1 110302Z 17018G23KT 14/11 A296 RMK A01 T01370108  RH  082%=      5-min Rain = 0
KOD1 110303Z 16017KT 14/11 A2959 RMK A01 T01380107  RH  082%=      5-min Rain = 0
KOD1 110304Z 15013KT 14/11 A2957 RMK A01 T01380108  RH  082%=      5-min Rain = 0
KOD1 110305Z 15011KT 14/11 A2956 RMK A01 T01370107  RH  082%=      5-min Rain = 0
KOD1 110306Z 14010KT 14/11 A2955 RMK A01 T01370107  RH  082%=      5-min Rain = 0
KOD1 110307Z 15013KT 14/11 A2955 RMK A01 T01360107  RH  082%=      5-min Rain = 0
KOD1 110308Z 16016KT 14/11 A2957 RMK A01 T01360107  RH  083%=      5-min Rain = 0
KOD1 110309Z 16017KT 14/11 A2957 RMK A01 T01360107  RH  083%=      5-min Rain = 0
KOD1 110310Z 16016KT 14/11 A2957 RMK A01 T01360107  RH  083%=      5-min Rain = 0
KOD1 110311Z 17016KT 14/11 A2958 RMK A01 T01350108  RH  083%=      5-min Rain = 0
KOD1 110312Z 16016KT 14/11 A2958 RMK A01 T01350108  RH  084%=      5-min Rain = 0
KOD1 110313Z 16016KT 13/11 A2957 RMK A01 T01340108  RH  084%=      5-min Rain = 0
KOD1 110314Z 16018KT 13/11 A2957 RMK A01 T01340107  RH  084%=      5-min Rain = 0
KOD1 110315Z 16016KT 13/11 A2957 RMK A01 T01340107  RH  084%=      5-min Rain = 0
KOD1 110316Z 16013KT 13/11 A2956 RMK A01 T01340107  RH  084%=      5-min Rain = 0
KOD1 110317Z 16013KT 13/11 A2955 RMK A01 T01340107  RH  084%=      5-min Rain = 0
KOD1 110318Z 16010KT 13/11 A2955 RMK A01 T01340107  RH  084%=      5-min Rain = 0
KOD1 110319Z 16011KT 13/11 A2955 RMK A01 T01330107  RH  084%=      5-min Rain = 0
KOD1 110320Z 16012KT 13/11 A2956 RMK A01 T01330107  RH  084%=      5-min Rain = 0
KOD1 110321Z 15015KT 13/11 A2956 RMK A01 T01320107  RH  085%=      5-min Rain = 0
KOD1 110322Z 15015KT 13/11 A2956 RMK A01 T01320107  RH  085%=      5-min Rain = 0
KOD1 110323Z 15016KT 13/11 A2956 RMK A01 T01310107  RH  085%=      5-min Rain = 0
KOD1 110324Z 14015KT 13/11 A2956 RMK A01 T01310106  RH  085%=      5-min Rain = 0
KOD1 110325Z 15014KT 13/11 A2955 RMK A01 T01320106  RH  085%=      5-min Rain = 0
KOD1 110326Z 15012KT 13/11 A2955 RMK A01 T01320106  RH  084%=      5-min Rain = 0
KOD1 110327Z 15014KT 13/11 A2955 RMK A01 T01320106  RH  085%=      5-min Rain = 0
KOD1 110328Z 15014KT 13/11 A2955 RMK A01 T01310106  RH  084%=      5-min Rain = 0
KOD1 110329Z 15013KT 13/11 A2955 RMK A01 T01320106  RH  084%=      5-min Rain = 0
KOD1 110330Z 15011KT 13/11 A2954 RMK A01 T01310105  RH  084%=      5-min Rain = 0
KOD1 110331Z 15013KT 13/11 A2954 RMK A01 T01310105  RH  084%=      5-min Rain = 0
KOD1 110332Z 15013KT 13/10 A2955 RMK A01 T01310104  RH  084%=      5-min Rain = 0
KOD1 110333Z 16013KT 13/10 A2955 RMK A01 T01310104  RH  083%=      5-min Rain = 0
KOD1 110334Z 15013KT 13/10 A2954 RMK A01 T01310103  RH  083%=      5-min Rain = 0
KOD1 110335Z 15011KT 13/10 A2954 RMK A01 T01300103  RH  083%=      5-min Rain = 0
KOD1 110336Z 15011KT 13/10 A2954 RMK A01 T01300102  RH  083%=      5-min Rain = 0
KOD1 110337Z 16011KT 13/10 A2954 RMK A01 T01300101  RH  083%=      5-min Rain = 0
KOD1 110338Z 16011KT 13/10 A2954 RMK A01 T01300101  RH  082%=      5-min Rain = 0
KOD1 110339Z 16010KT 13/10 A2954 RMK A01 T01290100  RH  082%=      5-min Rain = 0
KOD1 110340Z 16010KT 13/10 A2954 RMK A01 T01280099  RH  083%=      5-min Rain = 0
KOD1 110341Z 16010KT 13/10 A2954 RMK A01 T01270099  RH  083%=      5-min Rain = 0
KOD1 110342Z 16010KT 13/10 A2954 RMK A01 T01270098  RH  083%=      5-min Rain = 0
KOD1 110343Z 17011KT 13/10 A2954 RMK A01 T01260098  RH  083%=      5-min Rain = 0
KOD1 110344Z 16011KT 13/10 A2954 RMK A01 T01260098  RH  083%=      5-min Rain = 0
KOD1 110345Z 16010KT 13/10 A2954 RMK A01 T01260097  RH  083%=      5-min Rain = 0
KOD1 110346Z 16011KT 13/10 A2954 RMK A01 T01260096  RH  082%=      5-min Rain = 0
KOD1 110347Z 16011KT 13/10 A2954 RMK A01 T01260095  RH  082%=      5-min Rain = 0
KOD1 110348Z 16011KT 13/10 A2953 RMK A01 T01260095  RH  081%=      5-min Rain = 0
KOD1 110349Z 16010KT 13/09 A2953 RMK A01 T01260094  RH  081%=      5-min Rain = 0
KOD1 110350Z 17011KT 13/09 A2954 RMK A01 T01250094  RH  081%=      5-min Rain = 0
KOD1 110351Z 18010KT 13/09 A2954 RMK A01 T01250094  RH  082%=      5-min Rain = 0
KOD1 110352Z 19009KT 13/09 A2954 RMK A01 T01250093  RH  081%=      5-min Rain = 0
KOD1 110353Z 19010KT 13/09 A2954 RMK A01 T01250093  RH  081%=      5-min Rain = 0
KOD1 110354Z 19010KT 13/09 A2954 RMK A01 T01250093  RH  081%=      5-min Rain = 0
KOD1 110355Z 19009KT 13/09 A2954 RMK A01 T01250092  RH  081%=      5-min Rain = 0
KOD1 110356Z 19009KT 12/09 A2954 RMK A01 T01240092  RH  081%=      5-min Rain = 0
KOD1 110357Z 19009KT 12/09 A2954 RMK A01 T01230092  RH  081%=      5-min Rain = 0
KOD1 110358Z 19010KT 12/09 A2954 RMK A01 T01230092  RH  081%=      5-min Rain = 0
KOD1 110359Z 19009KT 12/09 A2954 RMK A01 T01240092  RH  081%=      5-min Rain = 0
KOD1 110400Z 19009KT 12/09 A2954 RMK A01 T01230092  RH  081%=      5-min Rain = 0
KOD1 110401Z 19009KT 12/09 A2955 RMK A01 T01230092  RH  081%=      5-min Rain = 0
KOD1 110402Z 19010KT 12/09 A2955 RMK A01 T01230092  RH  081%=      5-min Rain = 0
KOD1 110403Z 19010KT 12/09 A2955 RMK A01 T01230092  RH  081%=      5-min Rain = 0
KOD1 110404Z 18011KT 12/09 A2955 RMK A01 T01230092  RH  081%=      5-min Rain = 0
KOD1 110405Z 18011KT 12/09 A2955 RMK A01 T01230092  RH  081%=      5-min Rain = 0
KOD1 110406Z 18011KT 12/09 A2955 RMK A01 T01240092  RH  081%=      5-min Rain = 0
KOD1 110407Z 19011KT 12/09 A2955 RMK A01 T01240091  RH  080%=      5-min Rain = 0
KOD1 110408Z 19011KT 12/09 A2955 RMK A01 T01240091  RH  080%=      5-min Rain = 0
KOD1 110409Z 19012KT 12/09 A2955 RMK A01 T01240091  RH  080%=      5-min Rain = 0
KOD1 110410Z 18011KT 13/09 A2955 RMK A01 T01250091  RH  080%=      5-min Rain = 0
KOD1 110411Z 18011KT 12/09 A2955 RMK A01 T01240091  RH  080%=      5-min Rain = 0
KOD1 110412Z 18011KT 12/09 A2955 RMK A01 T01220091  RH  081%=      5-min Rain = 0
KOD1 110413Z 18013KT 12/09 A2955 RMK A01 T01210091  RH  082%=      5-min Rain = 0
KOD1 110414Z 18012KT 12/09 A2955 RMK A01 T01210092  RH  082%=      5-min Rain = 0
KOD1 110415Z 18012KT 12/09 A2955 RMK A01 T01210092  RH  082%=      5-min Rain = 0
KOD1 110416Z 19012KT 12/09 A2955 RMK A01 T01210092  RH  082%=      5-min Rain = 0
KOD1 110417Z 18012KT 12/09 A2955 RMK A01 T01210092  RH  083%=      5-min Rain = 0
KOD1 110418Z 18011KT 12/09 A2955 RMK A01 T01210092  RH  083%=      5-min Rain = 0
KOD1 110419Z 18011KT 12/09 A2955 RMK A01 T01200093  RH  083%=      5-min Rain = 0
KOD1 110420Z 18012KT 12/09 A2955 RMK A01 T01200093  RH  083%=      5-min Rain = 0
KOD1 110421Z 18012KT 12/09 A2955 RMK A01 T01190093  RH  084%=      5-min Rain = 0
KOD1 110422Z 18013KT 12/09 A2955 RMK A01 T01190093  RH  084%=      5-min Rain = 0
KOD1 110423Z 18013KT 12/09 A2955 RMK A01 T01190093  RH  084%=      5-min Rain = 0
KOD1 110424Z 18012KT 12/09 A2955 RMK A01 T01190093  RH  084%=      5-min Rain = 0
KOD1 110425Z 18011KT 12/09 A2955 RMK A01 T01190092  RH  084%=      5-min Rain = 0
KOD1 110426Z 18011KT 12/09 A2955 RMK A01 T01190092  RH  084%=      5-min Rain = 0
KOD1 110427Z 18012KT 12/09 A2955 RMK A01 T01180092  RH  084%=      5-min Rain = 0
KOD1 110428Z 18011KT 12/09 A2955 RMK A01 T01180092  RH  084%=      5-min Rain = 0
KOD1 110429Z 18012KT 12/09 A2955 RMK A01 T01180091  RH  084%=      5-min Rain = 0
KOD1 110430Z 18012KT 12/09 A2955 RMK A01 T01190091  RH  083%=      5-min Rain = 0
KOD1 110431Z 18012KT 12/09 A2955 RMK A01 T01190090  RH  082%=      5-min Rain = 0
KOD1 110432Z 18014KT 12/09 A2955 RMK A01 T01210090  RH  081%=      5-min Rain = 0
KOD1 110433Z 18013KT 12/09 A2955 RMK A01 T01210089  RH  081%=      5-min Rain = 0
KOD1 110434Z 18013KT 12/09 A2955 RMK A01 T01210089  RH  081%=      5-min Rain = 0
KOD1 110435Z 18013KT 12/09 A2955 RMK A01 T01210089  RH  081%=      5-min Rain = 0
KOD1 110436Z 18013KT 12/09 A2955 RMK A01 T01210088  RH  080%=      5-min Rain = 0
KOD1 110437Z 18015KT 12/09 A2955 RMK A01 T01210088  RH  080%=      5-min Rain = 0
KOD1 110438Z 18014KT 12/09 A2955 RMK A01 T01220088  RH  080%=      5-min Rain = 0
KOD1 110439Z 18015KT 12/09 A2955 RMK A01 T01220088  RH  080%=      5-min Rain = 0
KOD1 110440Z 18016KT 12/09 A2956 RMK A01 T01220088  RH  079%=      5-min Rain = 0
KOD1 110441Z 18015KT 12/09 A2955 RMK A01 T01230087  RH  079%=      5-min Rain = 0
KOD1 110442Z 18015KT 12/09 A2955 RMK A01 T01230086  RH  078%=      5-min Rain = 0
KOD1 110443Z 18017KT 12/09 A2955 RMK A01 T01230085  RH  078%=      5-min Rain = 0
KOD1 110444Z 18015KT 12/09 A2955 RMK A01 T01240085  RH  077%=      5-min Rain = 0
KOD1 110445Z 18015KT 12/08 A2955 RMK A01 T01240084  RH  076%=      5-min Rain = 0
KOD1 110446Z 18015KT 12/08 A2955 RMK A01 T01240084  RH  076%=      5-min Rain = 0
KOD1 110447Z 18015KT 12/08 A2956 RMK A01 T01230084  RH  077%=      5-min Rain = 0
KOD1 110448Z 18015KT 12/08 A2956 RMK A01 T01220084  RH  078%=      5-min Rain = 0
KOD1 110449Z 18015KT 12/08 A2956 RMK A01 T01210084  RH  078%=      5-min Rain = 0
KOD1 110450Z 18016KT 12/09 A2956 RMK A01 T01210085  RH  079%=      5-min Rain = 0
KOD1 110451Z 18015KT 12/09 A2956 RMK A01 T01210085  RH  079%=      5-min Rain = 0
KOD1 110452Z 18015KT 12/09 A2956 RMK A01 T01200085  RH  079%=      5-min Rain = 0
KOD1 110453Z 18015KT 12/09 A2956 RMK A01 T01190085  RH  080%=      5-min Rain = 0
KOD1 110454Z 18015KT 12/09 A2956 RMK A01 T01190085  RH  080%=      5-min Rain = 0
KOD1 110455Z 18015KT 12/09 A2956 RMK A01 T01190085  RH  080%=      5-min Rain = 0
KOD1 110456Z 18015KT 12/09 A2956 RMK A01 T01180085  RH  080%=      5-min Rain = 0
KOD1 110457Z 18015KT 12/08 A2956 RMK A01 T01190084  RH  079%=      5-min Rain = 0
KOD1 110458Z 18016KT 12/08 A2956 RMK A01 T01190083  RH  078%=      5-min Rain = 0
KOD1 110459Z 18015KT 12/08 A2956 RMK A01 T01200082  RH  078%=      5-min Rain = 0
KOD1 110500Z 18015KT 12/08 A2956 RMK A01 T01200081  RH  077%=      5-min Rain = 0
KOD1 110501Z 19014KT 12/08 A2957 RMK A01 T01200081  RH  077%=      5-min Rain = 0
KOD1 110502Z 19014KT 12/08 A2957 RMK A01 T01200081  RH  077%=      5-min Rain = 0
KOD1 110503Z 18015KT 12/08 A2957 RMK A01 T01200080  RH  077%=      5-min Rain = 0
KOD1 110504Z 18015KT 12/08 A2956 RMK A01 T01200080  RH  077%=      5-min Rain = 0
KOD1 110505Z 18015KT 12/08 A2956 RMK A01 T01190080  RH  077%=      5-min Rain = 0
KOD1 110506Z 18015KT 12/08 A2956 RMK A01 T01190080  RH  077%=      5-min Rain = 0
KOD1 110507Z 18015KT 12/08 A2956 RMK A01 T01190080  RH  077%=      5-min Rain = 0
KOD1 110508Z 18015KT 12/08 A2956 RMK A01 T01180080  RH  077%=      5-min Rain = 0
KOD1 110509Z 18016KT 12/08 A2956 RMK A01 T01190079  RH  077%=      5-min Rain = 0
KOD1 110510Z 18016KT 12/08 A2956 RMK A01 T01190079  RH  077%=      5-min Rain = 0
KOD1 110511Z 18016KT 12/08 A2956 RMK A01 T01190079  RH  077%=      5-min Rain = 0
KOD1 110512Z 18017KT 12/08 A2956 RMK A01 T01190079  RH  077%=      5-min Rain = 0
KOD1 110513Z 18016KT 12/08 A2956 RMK A01 T01180079  RH  077%=      5-min Rain = 0
KOD1 110514Z 18014KT 12/08 A2956 RMK A01 T01180079  RH  077%=      5-min Rain = 0
KOD1 110515Z 18016KT 12/08 A2956 RMK A01 T01170078  RH  077%=      5-min Rain = 0
KOD1 110516Z 18016KT 12/08 A2956 RMK A01 T01180077  RH  076%=      5-min Rain = 0
KOD1 110517Z 18015KT 12/08 A2956 RMK A01 T01180077  RH  076%=      5-min Rain = 0
KOD1 110518Z 18017KT 12/08 A2956 RMK A01 T01180077  RH  076%=      5-min Rain = 0
KOD1 110519Z 18015KT 12/08 A2956 RMK A01 T01180076  RH  076%=      5-min Rain = 0
KOD1 110520Z 18015G20KT 12/08 A2956 RMK A01 T01170077  RH  076%=      5-min Rain = 0
KOD1 110521Z 18015KT 12/08 A2956 RMK A01 T01160076  RH  076%=      5-min Rain = 0
KOD1 110522Z 18015KT 12/08 A2956 RMK A01 T01160076  RH  076%=      5-min Rain = 0
KOD1 110523Z 18015KT 12/08 A2956 RMK A01 T01160076  RH  076%=      5-min Rain = 0
KOD1 110524Z 18016KT 12/08 A2956 RMK A01 T01150076  RH  076%=      5-min Rain = 0
KOD1 110525Z 18017KT 12/08 A2956 RMK A01 T01160075  RH  076%=      5-min Rain = 0
KOD1 110526Z 18017KT 12/08 A2956 RMK A01 T01170075  RH  075%=      5-min Rain = 0
KOD1 110527Z 18017KT 12/08 A2956 RMK A01 T01170075  RH  075%=      5-min Rain = 0
KOD1 110528Z 18016KT 12/07 A2956 RMK A01 T01170074  RH  075%=      5-min Rain = 0
KOD1 110529Z 18016KT 12/07 A2956 RMK A01 T01160074  RH  075%=      5-min Rain = 0
KOD1 110530Z 18016KT 12/07 A2956 RMK A01 T01160074  RH  075%=      5-min Rain = 0
KOD1 110531Z 18015KT 12/07 A2956 RMK A01 T01150074  RH  076%=      5-min Rain = 0
KOD1 110532Z 18015KT 12/07 A2956 RMK A01 T01150073  RH  075%=      5-min Rain = 0
KOD1 110533Z 18014KT 12/07 A2956 RMK A01 T01150073  RH  075%=      5-min Rain = 0
KOD1 110534Z 18015KT 12/07 A2956 RMK A01 T01150073  RH  076%=      5-min Rain = 0
KOD1 110535Z 18016KT 12/07 A2956 RMK A01 T01150073  RH  075%=      5-min Rain = 0
KOD1 110536Z 17014KT 12/07 A2956 RMK A01 T01150073  RH  075%=      5-min Rain = 0
KOD1 110537Z 17015KT 11/07 A2956 RMK A01 T01140073  RH  076%=      5-min Rain = 0
KOD1 110538Z 18015KT 11/07 A2956 RMK A01 T01140073  RH  076%=      5-min Rain = 0
KOD1 110539Z 18015KT 11/07 A2956 RMK A01 T01140073  RH  075%=      5-min Rain = 0
KOD1 110540Z 18014KT 11/07 A2956 RMK A01 T01140073  RH  076%=      5-min Rain = 0
KOD1 110541Z 18014KT 11/07 A2956 RMK A01 T01140073  RH  076%=      5-min Rain = 0
KOD1 110542Z 18014KT 11/07 A2956 RMK A01 T01140073  RH  076%=      5-min Rain = 0
KOD1 110543Z 18016KT 11/07 A2955 RMK A01 T01140072  RH  076%=      5-min Rain = 0
KOD1 110544Z 18015KT 11/07 A2955 RMK A01 T01140072  RH  075%=      5-min Rain = 0
KOD1 110545Z 17016G21KT 11/07 A2955 RMK A01 T01140072  RH  076%=      5-min Rain = 0
KOD1 110546Z 17017KT 11/07 A2955 RMK A01 T01140072  RH  075%=      5-min Rain = 0
KOD1 110547Z 18015KT 11/07 A2955 RMK A01 T01140071  RH  075%=      5-min Rain = 0
KOD1 110548Z 18015KT 11/07 A2955 RMK A01 T01140071  RH  075%=      5-min Rain = 0
KOD1 110549Z 18015G20KT 11/07 A2955 RMK A01 T01130071  RH  075%=      5-min Rain = 0
KOD1 110550Z 18014KT 11/07 A2955 RMK A01 T01130071  RH  075%=      5-min Rain = 0
KOD1 110551Z 18017KT 11/07 A2955 RMK A01 T01130070  RH  075%=      5-min Rain = 0
KOD1 110552Z 19014KT 11/07 A2955 RMK A01 T01140070  RH  074%=      5-min Rain = 0
KOD1 110553Z 19015KT 11/07 A2955 RMK A01 T01140069  RH  074%=      5-min Rain = 0
KOD1 110554Z 19015KT 11/07 A2955 RMK A01 T01140069  RH  074%=      5-min Rain = 0
KOD1 110555Z 19015KT 11/07 A2955 RMK A01 T01140068  RH  073%=      5-min Rain = 0
KOD1 110556Z 19015KT 11/07 A2955 RMK A01 T01140067  RH  073%=      5-min Rain = 0
KOD1 110557Z 19016KT 11/07 A2955 RMK A01 T01140067  RH  073%=      5-min Rain = 0
KOD1 110558Z 19014KT 11/07 A2955 RMK A01 T01140067  RH  073%=      5-min Rain = 0
KOD1 110559Z 19015KT 11/07 A2955 RMK A01 T01140066  RH  072%=      5-min Rain = 0

Page generated in 0.2196 seconds.